Wetterdaten: Mittwoch, 17.03.2021
Datum Zeit Temp. Aussen Temp. o. S. Temp +5cm Feuchte Auss Luftdruck Regen Sonnenschein Regendauer Solar Windben Empfang
17.03.2021 00:00 4,6 C 3,9 C 3,4 C 96 % 1023,8 hPa 0,2 l/m 0 min 2 min 0 W/m 12,9 km/h (3 Bft) 100,00 %
17.03.2021 00:02 4,6 C 3,9 C 3,4 C 96 % 1023,8 hPa 0,0 l/m 0 min 2 min 0 W/m 6,4 km/h (2 Bft) 100,00 %
17.03.2021 00:04 4,6 C 3,9 C 3,4 C 96 % 1023,8 hPa 0,0 l/m 0 min 2 min 0 W/m 6,4 km/h (2 Bft) 100,00 %
17.03.2021 00:08 4,6 C 3,9 C 3,4 C 96 % 1023,8 hPa 0,0 l/m 0 min 4 min 0 W/m 6,4 km/h (2 Bft) 100,00 %
17.03.2021 00:10 4,6 C 3,9 C 3,4 C 96 % 1023,8 hPa 0,0 l/m 0 min 2 min 0 W/m 6,4 km/h (2 Bft) 100,00 %
17.03.2021 00:12 4,6 C 3,9 C 3,4 C 97 % 1023,8 hPa 0,0 l/m 0 min 2 min 0 W/m 9,7 km/h (2 Bft) 97,87 %
17.03.2021 00:14 4,6 C 3,9 C 3,4 C 97 % 1023,8 hPa 0,0 l/m 0 min 2 min 0 W/m 6,4 km/h (2 Bft) 97,87 %
17.03.2021 00:16 4,6 C 3,9 C 3,4 C 97 % 1023,8 hPa 0,0 l/m 0 min 2 min 0 W/m 6,4 km/h (2 Bft) 57,45 %
17.03.2021 00:18 4,6 C 3,9 C 3,4 C 97 % 1023,9 hPa 0,0 l/m 0 min 2 min 0 W/m 3,2 km/h (1 Bft) 95,74 %
17.03.2021 00:20 4,6 C 3,9 C 3,4 C 97 % 1023,9 hPa 0,0 l/m 0 min 2 min 0 W/m 6,4 km/h (2 Bft) 97,83 %
17.03.2021 00:22 4,6 C 3,9 C 2,8 C 97 % 1023,8 hPa 0,0 l/m 0 min 2 min 0 W/m 6,4 km/h (2 Bft) 97,87 %
17.03.2021 00:24 4,6 C 3,9 C 3,4 C 97 % 1023,9 hPa 0,0 l/m 0 min 2 min 0 W/m 9,7 km/h (2 Bft) 95,74 %
17.03.2021 00:26 4,6 C 3,9 C 2,8 C 97 % 1023,8 hPa 0,0 l/m 0 min 2 min 0 W/m 9,7 km/h (2 Bft) 97,87 %
17.03.2021 00:28 4,6 C 3,9 C 2,8 C 97 % 1023,9 hPa 0,0 l/m 0 min 0 min 0 W/m 12,9 km/h (3 Bft) 97,87 %
17.03.2021 00:30 4,6 C 3,9 C 2,8 C 97 % 1023,9 hPa 0,0 l/m 0 min 0 min 0 W/m 9,7 km/h (2 Bft) 95,74 %
17.03.2021 00:32 4,6 C 3,9 C 2,8 C 97 % 1023,9 hPa 0,0 l/m 0 min 0 min 0 W/m 9,7 km/h (2 Bft) 93,48 %
17.03.2021 00:34 4,6 C 3,9 C 2,8 C 97 % 1023,8 hPa 0,0 l/m 0 min 0 min 0 W/m 6,4 km/h (2 Bft) 97,87 %
17.03.2021 00:36 4,6 C 3,9 C 3,4 C 97 % 1023,9 hPa 0,0 l/m 0 min 0 min 0 W/m 9,7 km/h (2 Bft) 97,87 %
17.03.2021 00:38 4,6 C 3,9 C 3,4 C 97 % 1023,8 hPa 0,0 l/m 0 min 0 min 0 W/m 12,9 km/h (3 Bft) 97,87 %
17.03.2021 00:40 4,6 C 3,9 C 2,8 C 97 % 1023,8 hPa 0,0 l/m 0 min 0 min 0 W/m 9,7 km/h (2 Bft) 95,74 %
17.03.2021 00:42 4,6 C 3,9 C 2,8 C 97 % 1023,8 hPa 0,0 l/m 0 min 0 min 0 W/m 9,7 km/h (2 Bft) 97,50 %
17.03.2021 00:44 4,6 C 3,9 C 2,8 C 97 % 1023,9 hPa 0,0 l/m 0 min 0 min 0 W/m 6,4 km/h (2 Bft) 95,74 %
17.03.2021 00:46 4,6 C 3,9 C 3,4 C 97 % 1023,9 hPa 0,0 l/m 0 min 2 min 0 W/m 9,7 km/h (2 Bft) 97,78 %
17.03.2021 00:48 4,6 C 3,9 C 2,8 C 97 % 1023,9 hPa 0,0 l/m 0 min 0 min 0 W/m 9,7 km/h (2 Bft) 95,74 %
17.03.2021 00:50 4,6 C 3,9 C 2,8 C 97 % 1023,9 hPa 0,0 l/m 0 min 0 min 0 W/m 9,7 km/h (2 Bft) 95,74 %
17.03.2021 00:52 4,6 C 3,9 C 2,8 C 97 % 1023,9 hPa 0,0 l/m 0 min 2 min 0 W/m 6,4 km/h (2 Bft) 93,62 %
17.03.2021 00:54 4,6 C 3,9 C 2,8 C 97 % 1023,8 hPa 0,0 l/m 0 min 2 min 0 W/m 9,7 km/h (2 Bft) 91,49 %
17.03.2021 00:56 4,6 C 3,9 C 2,8 C 97 % 1023,9 hPa 0,0 l/m 0 min 2 min 0 W/m 9,7 km/h (2 Bft) 93,62 %
17.03.2021 00:58 4,6 C 3,9 C 2,8 C 97 % 1023,8 hPa 0,0 l/m 0 min 0 min 0 W/m 9,7 km/h (2 Bft) 95,65 %
17.03.2021 01:00 4,5 C 3,9 C 2,8 C 97 % 1023,8 hPa 0,0 l/m 0 min 0 min 0 W/m 6,4 km/h (2 Bft) 95,74 %
17.03.2021 01:02 4,5 C 3,9 C 2,8 C 97 % 1023,8 hPa 0,0 l/m 0 min 0 min 0 W/m 6,4 km/h (2 Bft) 93,62 %
17.03.2021 01:04 4,5 C 3,9 C 2,8 C 97 % 1023,8 hPa 0,0 l/m 0 min 0 min 0 W/m 6,4 km/h (2 Bft) 95,83 %
17.03.2021 01:06 4,5 C 3,9 C 2,8 C 97 % 1023,9 hPa 0,0 l/m 0 min 0 min 0 W/m 6,4 km/h (2 Bft) 95,74 %
17.03.2021 01:08 4,5 C 3,9 C 2,8 C 97 % 1023,8 hPa 0,0 l/m 0 min 0 min 0 W/m 6,4 km/h (2 Bft) 93,62 %
17.03.2021 01:10 4,5 C 3,9 C 2,8 C 97 % 1023,9 hPa 0,0 l/m 0 min 0 min 0 W/m 6,4 km/h (2 Bft) 95,65 %
17.03.2021 01:12 4,5 C 3,9 C 2,8 C 97 % 1023,9 hPa 0,0 l/m 0 min 0 min 0 W/m 6,4 km/h (2 Bft) 97,87 %
17.03.2021 01:14 4,5 C 3,9 C 2,8 C 97 % 1024,0 hPa 0,0 l/m 0 min 0 min 0 W/m 3,2 km/h (1 Bft) 97,87 %
17.03.2021 01:16 4,4 C 3,9 C 2,8 C 97 % 1023,9 hPa 0,0 l/m 0 min 0 min 0 W/m 3,2 km/h (1 Bft) 95,74 %
17.03.2021 01:18 4,4 C 3,9 C 2,8 C 97 % 1024,0 hPa 0,0 l/m 0 min 0 min 0 W/m 16,1 km/h (3 Bft) 91,49 %
17.03.2021 01:20 4,4 C 3,9 C 2,8 C 97 % 1024,0 hPa 0,0 l/m 0 min 0 min 0 W/m 6,4 km/h (2 Bft) 55,26 %
17.03.2021 01:22 4,4 C 3,9 C 2,8 C 97 % 1024,0 hPa 0,0 l/m 0 min 0 min 0 W/m 9,7 km/h (2 Bft) 97,83 %
17.03.2021 01:24 4,4 C 3,9 C 2,8 C 97 % 1024,1 hPa 0,0 l/m 0 min 0 min 0 W/m 9,7 km/h (2 Bft) 100,00 %
17.03.2021 01:26 4,4 C 3,9 C 2,8 C 97 % 1024,1 hPa 0,0 l/m 0 min 0 min 0 W/m 9,7 km/h (2 Bft) 97,87 %
17.03.2021 01:28 4,4 C 3,9 C 2,8 C 97 % 1024,1 hPa 0,0 l/m 0 min 0 min 0 W/m 6,4 km/h (2 Bft) 100,00 %
17.03.2021 01:30 4,3 C 3,9 C 2,8 C 97 % 1024,1 hPa 0,0 l/m 0 min 0 min 0 W/m 6,4 km/h (2 Bft) 100,00 %
17.03.2021 01:32 4,3 C 3,9 C 2,8 C 97 % 1024,2 hPa 0,0 l/m 0 min 0 min 0 W/m 9,7 km/h (2 Bft) 97,87 %
17.03.2021 01:34 4,3 C 3,9 C 2,8 C 97 % 1024,2 hPa 0,0 l/m 0 min 0 min 0 W/m 6,4 km/h (2 Bft) 97,83 %
17.03.2021 01:36 4,3 C 3,9 C 2,8 C 97 % 1024,2 hPa 0,0 l/m 0 min 0 min 0 W/m 9,7 km/h (2 Bft) 100,00 %
17.03.2021 01:38 4,3 C 3,9 C 2,8 C 97 % 1024,2 hPa 0,0 l/m 0 min 0 min 0 W/m 9,7 km/h (2 Bft) 100,00 %
17.03.2021 01:40 4,3 C 3,9 C 2,8 C 97 % 1024,3 hPa 0,0 l/m 0 min 0 min 0 W/m 16,1 km/h (3 Bft) 97,87 %
17.03.2021 01:42 4,3 C 3,9 C 2,8 C 97 % 1024,2 hPa 0,0 l/m 0 min 0 min 0 W/m 9,7 km/h (2 Bft) 97,87 %
17.03.2021 01:44 4,3 C 3,9 C 2,8 C 97 % 1024,3 hPa 0,0 l/m 0 min 0 min 0 W/m 9,7 km/h (2 Bft) 100,00 %
17.03.2021 01:46 4,3 C 3,9 C 2,8 C 97 % 1024,3 hPa 0,0 l/m 0 min 0 min 0 W/m 9,7 km/h (2 Bft) 100,00 %
17.03.2021 01:48 4,3 C 3,9 C 2,8 C 97 % 1024,3 hPa 0,0 l/m 0 min 0 min 0 W/m 9,7 km/h (2 Bft) 100,00 %
17.03.2021 01:50 4,3 C 3,9 C 2,8 C 97 % 1024,3 hPa 0,0 l/m 0 min 0 min 0 W/m 6,4 km/h (2 Bft) 100,00 %
17.03.2021 01:52 4,2 C 3,9 C 2,8 C 97 % 1024,3 hPa 0,0 l/m 0 min 0 min 0 W/m 12,9 km/h (3 Bft) 100,00 %
17.03.2021 01:54 4,2 C 3,9 C 2,8 C 97 % 1024,3 hPa 0,0 l/m 0 min 0 min 0 W/m 6,4 km/h (2 Bft) 100,00 %
17.03.2021 01:56 4,2 C 3,9 C 2,8 C 97 % 1024,3 hPa 0,0 l/m 0 min 0 min 0 W/m 6,4 km/h (2 Bft) 100,00 %
17.03.2021 01:58 4,1 C 3,9 C 2,8 C 97 % 1024,3 hPa 0,0 l/m 0 min 0 min 0 W/m 9,7 km/h (2 Bft) 100,00 %
17.03.2021 02:00 4,1 C 3,9 C 2,8 C 97 % 1024,3 hPa 0,0 l/m 0 min 0 min 0 W/m 16,1 km/h (3 Bft) 97,87 %
17.03.2021 02:02 4,1 C 3,9 C 2,8 C 97 % 1024,2 hPa 0,0 l/m 0 min 0 min 0 W/m 9,7 km/h (2 Bft) 100,00 %
17.03.2021 02:04 4,1 C 3,9 C 2,8 C 97 % 1024,2 hPa 0,0 l/m 0 min 0 min 0 W/m 9,7 km/h (2 Bft) 100,00 %
17.03.2021 02:06 4,1 C 3,9 C 2,8 C 97 % 1024,2 hPa 0,0 l/m 0 min 0 min 0 W/m 9,7 km/h (2 Bft) 100,00 %
17.03.2021 02:08 4,1 C 3,9 C 2,8 C 97 % 1024,2 hPa 0,0 l/m 0 min 0 min 0 W/m 6,4 km/h (2 Bft) 100,00 %
17.03.2021 02:10 4,1 C 3,9 C 2,8 C 97 % 1024,3 hPa 0,0 l/m 0 min 0 min 0 W/m 16,1 km/h (3 Bft) 97,87 %
17.03.2021 02:12 4,1 C 3,9 C 2,8 C 97 % 1024,3 hPa 0,0 l/m 0 min 0 min 0 W/m 9,7 km/h (2 Bft) 97,87 %
17.03.2021 02:14 4,1 C 3,9 C 2,8 C 97 % 1024,3 hPa 0,0 l/m 0 min 0 min 0 W/m 3,2 km/h (1 Bft) 100,00 %
17.03.2021 02:16 4,1 C 3,9 C 2,8 C 97 % 1024,3 hPa 0,0 l/m 0 min 0 min 0 W/m 3,2 km/h (1 Bft) 100,00 %
17.03.2021 02:18 4,1 C 3,9 C 2,8 C 97 % 1024,3 hPa 0,0 l/m 0 min 0 min 0 W/m 6,4 km/h (2 Bft) 100,00 %
17.03.2021 02:20 4,2 C 3,9 C 2,8 C 97 % 1024,3 hPa 0,0 l/m 0 min 0 min 0 W/m 9,7 km/h (2 Bft) 97,87 %
17.03.2021 02:22 4,1 C 3,9 C 2,8 C 97 % 1024,2 hPa 0,0 l/m 0 min 0 min 0 W/m 9,7 km/h (2 Bft) 100,00 %
17.03.2021 02:24 4,1 C 3,9 C 2,8 C 97 % 1024,2 hPa 0,0 l/m 0 min 0 min 0 W/m 12,9 km/h (3 Bft) 100,00 %
17.03.2021 02:26 4,1 C 3,9 C 2,8 C 97 % 1024,2 hPa 0,0 l/m 0 min 0 min 0 W/m 12,9 km/h (3 Bft) 100,00 %
17.03.2021 02:28 4,1 C 3,9 C 2,8 C 97 % 1024,3 hPa 0,0 l/m 0 min 0 min 0 W/m 9,7 km/h (2 Bft) 95,74 %
17.03.2021 02:30 4,1 C 3,9 C 2,8 C 97 % 1024,3 hPa 0,0 l/m 0 min 0 min 0 W/m 12,9 km/h (3 Bft) 97,83 %
17.03.2021 02:32 4,1 C 3,9 C 2,8 C 97 % 1024,3 hPa 0,0 l/m 0 min 0 min 0 W/m 9,7 km/h (2 Bft) 100,00 %
17.03.2021 02:34 4,1 C 3,9 C 2,8 C 97 % 1024,3 hPa 0,0 l/m 0 min 0 min 0 W/m 6,4 km/h (2 Bft) 100,00 %
17.03.2021 02:36 4,1 C 3,9 C 2,8 C 97 % 1024,3 hPa 0,0 l/m 0 min 0 min 0 W/m 6,4 km/h (2 Bft) 100,00 %
17.03.2021 02:38 4,1 C 3,9 C 2,8 C 97 % 1024,3 hPa 0,0 l/m 0 min 0 min 0 W/m 3,2 km/h (1 Bft) 100,00 %
17.03.2021 02:40 4,1 C 3,9 C 2,8 C 97 % 1024,4 hPa 0,0 l/m 0 min 0 min 0 W/m 6,4 km/h (2 Bft) 100,00 %
17.03.2021 02:42 4,1 C 3,9 C 2,8 C 97 % 1024,4 hPa 0,0 l/m 0 min 0 min 0 W/m 12,9 km/h (3 Bft) 100,00 %
17.03.2021 02:44 4,1 C 3,9 C 2,8 C 97 % 1024,4 hPa 0,0 l/m 0 min 0 min 0 W/m 16,1 km/h (3 Bft) 100,00 %
17.03.2021 02:46 4,1 C 3,9 C 2,8 C 97 % 1024,4 hPa 0,0 l/m 0 min 0 min 0 W/m 9,7 km/h (2 Bft) 100,00 %
17.03.2021 02:48 4,1 C 3,9 C 2,8 C 97 % 1024,4 hPa 0,0 l/m 0 min 0 min 0 W/m 6,4 km/h (2 Bft) 95,74 %
17.03.2021 02:50 4,1 C 3,9 C 2,8 C 97 % 1024,4 hPa 0,0 l/m 0 min 0 min 0 W/m 6,4 km/h (2 Bft) 100,00 %
17.03.2021 02:52 4,1 C 3,9 C 2,8 C 97 % 1024,4 hPa 0,0 l/m 0 min 0 min 0 W/m 9,7 km/h (2 Bft) 100,00 %
17.03.2021 02:54 4,1 C 3,9 C 2,8 C 97 % 1024,5 hPa 0,0 l/m 0 min 0 min 0 W/m 9,7 km/h (2 Bft) 97,87 %
17.03.2021 02:56 4,1 C 3,9 C 2,8 C 97 % 1024,5 hPa 0,0 l/m 0 min 0 min 0 W/m 6,4 km/h (2 Bft) 100,00 %
17.03.2021 02:58 4,1 C 3,9 C 2,8 C 97 % 1024,5 hPa 0,0 l/m 0 min 0 min 0 W/m 9,7 km/h (2 Bft) 97,87 %
17.03.2021 03:00 4,1 C 3,9 C 2,8 C 97 % 1024,5 hPa 0,0 l/m 0 min 0 min 0 W/m 9,7 km/h (2 Bft) 97,87 %
17.03.2021 03:02 4,1 C 3,9 C 2,8 C 97 % 1024,5 hPa 0,0 l/m 0 min 2 min 0 W/m 9,7 km/h (2 Bft) 95,74 %
17.03.2021 03:04 4,1 C 3,9 C 2,8 C 97 % 1024,5 hPa 0,0 l/m 0 min 0 min 0 W/m 6,4 km/h (2 Bft) 95,74 %
17.03.2021 03:06 4,1 C 3,9 C 2,8 C 97 % 1024,5 hPa 0,0 l/m 0 min 2 min 0 W/m 12,9 km/h (3 Bft) 97,87 %
17.03.2021 03:08 4,1 C 3,9 C 2,8 C 97 % 1024,5 hPa 0,0 l/m 0 min 0 min 0 W/m 3,2 km/h (1 Bft) 97,83 %
17.03.2021 03:10 4,1 C 3,9 C 2,8 C 97 % 1024,5 hPa 0,0 l/m 0 min 0 min 0 W/m 16,1 km/h (3 Bft) 97,87 %
17.03.2021 03:12 4,1 C 3,9 C 2,8 C 97 % 1024,5 hPa 0,0 l/m 0 min 0 min 0 W/m 9,7 km/h (2 Bft) 95,74 %
17.03.2021 03:14 4,1 C 3,9 C 2,8 C 97 % 1024,5 hPa 0,0 l/m 0 min 0 min 0 W/m 16,1 km/h (3 Bft) 97,87 %
17.03.2021 03:16 4,1 C 3,9 C 2,8 C 97 % 1024,6 hPa 0,0 l/m 0 min 0 min 0 W/m 12,9 km/h (3 Bft) 97,87 %
17.03.2021 03:18 4,1 C 3,9 C 2,8 C 97 % 1024,5 hPa 0,0 l/m 0 min 0 min 0 W/m 19,3 km/h (3 Bft) 97,87 %
17.03.2021 03:20 4,1 C 3,9 C 2,8 C 97 % 1024,6 hPa 0,0 l/m 0 min 0 min 0 W/m 9,7 km/h (2 Bft) 97,83 %
17.03.2021 03:22 4,1 C 3,9 C 2,8 C 97 % 1024,6 hPa 0,0 l/m 0 min 0 min 0 W/m 9,7 km/h (2 Bft) 52,27 %
17.03.2021 03:24 4,1 C 3,9 C 2,8 C 97 % 1024,6 hPa 0,0 l/m 0 min 0 min 0 W/m 9,7 km/h (2 Bft) 97,87 %
17.03.2021 03:26 4,1 C 3,9 C 2,8 C 97 % 1024,6 hPa 0,0 l/m 0 min 2 min 0 W/m 6,4 km/h (2 Bft) 97,87 %
17.03.2021 03:28 4,1 C 3,9 C 2,8 C 97 % 1024,6 hPa 0,0 l/m 0 min 0 min 0 W/m 9,7 km/h (2 Bft) 97,87 %
17.03.2021 03:30 4,1 C 3,9 C 2,8 C 97 % 1024,7 hPa 0,0 l/m 0 min 0 min 0 W/m 16,1 km/h (3 Bft) 95,74 %
17.03.2021 03:32 4,1 C 3,9 C 2,8 C 97 % 1024,6 hPa 0,0 l/m 0 min 2 min 0 W/m 16,1 km/h (3 Bft) 97,83 %
17.03.2021 03:34 4,1 C 3,9 C 2,8 C 97 % 1024,7 hPa 0,0 l/m 0 min 2 min 0 W/m 9,7 km/h (2 Bft) 95,74 %
17.03.2021 03:36 4,1 C 3,9 C 2,8 C 97 % 1024,7 hPa 0,0 l/m 0 min 2 min 0 W/m 12,9 km/h (3 Bft) 95,74 %
17.03.2021 03:38 4,2 C 3,9 C 2,8 C 97 % 1024,7 hPa 0,0 l/m 0 min 2 min 0 W/m 9,7 km/h (2 Bft) 93,62 %
17.03.2021 03:40 4,1 C 3,9 C 2,8 C 97 % 1024,7 hPa 0,0 l/m 0 min 2 min 0 W/m 12,9 km/h (3 Bft) 100,00 %
17.03.2021 03:42 4,1 C 3,9 C 2,8 C 97 % 1024,7 hPa 0,0 l/m 0 min 2 min 0 W/m 9,7 km/h (2 Bft) 97,87 %
17.03.2021 03:44 4,2 C 3,9 C 2,8 C 97 % 1024,7 hPa 0,0 l/m 0 min 2 min 0 W/m 6,4 km/h (2 Bft) 97,83 %
17.03.2021 03:46 4,2 C 3,9 C 2,8 C 97 % 1024,7 hPa 0,0 l/m 0 min 2 min 0 W/m 9,7 km/h (2 Bft) 93,62 %
17.03.2021 03:48 4,2 C 3,9 C 2,8 C 97 % 1024,8 hPa 0,0 l/m 0 min 2 min 0 W/m 22,5 km/h (4 Bft) 100,00 %
17.03.2021 03:50 4,1 C 3,9 C 2,8 C 97 % 1024,8 hPa 0,0 l/m 0 min 2 min 0 W/m 16,1 km/h (3 Bft) 97,87 %
17.03.2021 03:52 4,1 C 3,9 C 2,8 C 97 % 1024,7 hPa 0,0 l/m 0 min 2 min 0 W/m 16,1 km/h (3 Bft) 93,62 %
17.03.2021 03:54 4,1 C 3,9 C 2,8 C 97 % 1024,7 hPa 0,0 l/m 0 min 2 min 0 W/m 19,3 km/h (3 Bft) 93,62 %
17.03.2021 03:56 4,1 C 3,9 C 2,8 C 97 % 1024,8 hPa 0,0 l/m 0 min 2 min 0 W/m 16,1 km/h (3 Bft) 95,65 %
17.03.2021 03:58 4,1 C 3,9 C 2,8 C 97 % 1024,7 hPa 0,0 l/m 0 min 2 min 0 W/m 16,1 km/h (3 Bft) 95,74 %
17.03.2021 04:00 4,1 C 3,9 C 2,8 C 97 % 1024,8 hPa 0,0 l/m 0 min 2 min 0 W/m 9,7 km/h (2 Bft) 95,74 %
17.03.2021 04:02 4,1 C 3,9 C 2,8 C 97 % 1024,8 hPa 0,0 l/m 0 min 2 min 0 W/m 12,9 km/h (3 Bft) 100,00 %
17.03.2021 04:04 4,1 C 3,9 C 2,8 C 97 % 1024,8 hPa 0,0 l/m 0 min 2 min 0 W/m 16,1 km/h (3 Bft) 95,74 %
17.03.2021 04:06 4,1 C 3,3 C 2,8 C 97 % 1024,8 hPa 0,0 l/m 0 min 2 min 0 W/m 16,1 km/h (3 Bft) 97,87 %
17.03.2021 04:08 4,1 C 3,9 C 2,8 C 97 % 1024,8 hPa 0,0 l/m 0 min 2 min 0 W/m 19,3 km/h (3 Bft) 95,65 %
17.03.2021 04:10 4,0 C 3,3 C 2,8 C 97 % 1024,8 hPa 0,0 l/m 0 min 2 min 0 W/m 16,1 km/h (3 Bft) 95,74 %
17.03.2021 04:12 4,0 C 3,3 C 2,8 C 97 % 1024,8 hPa 0,0 l/m 0 min 2 min 0 W/m 19,3 km/h (3 Bft) 95,74 %
17.03.2021 04:14 4,0 C 3,3 C 2,8 C 97 % 1024,8 hPa 0,0 l/m 0 min 2 min 0 W/m 19,3 km/h (3 Bft) 93,62 %
17.03.2021 04:16 4,0 C 3,3 C 2,8 C 97 % 1024,7 hPa 0,0 l/m 0 min 2 min 0 W/m 19,3 km/h (3 Bft) 94,00 %
17.03.2021 04:18 3,9 C 3,3 C 2,8 C 97 % 1024,7 hPa 0,2 l/m 0 min 2 min 0 W/m 6,4 km/h (2 Bft) 91,30 %
17.03.2021 04:20 3,9 C 3,3 C 2,8 C 97 % 1024,7 hPa 0,0 l/m 0 min 2 min 0 W/m 19,3 km/h (3 Bft) 95,74 %
17.03.2021 04:22 3,9 C 3,3 C 2,8 C 97 % 1024,7 hPa 0,0 l/m 0 min 2 min 0 W/m 9,7 km/h (2 Bft) 50,00 %
17.03.2021 04:24 3,9 C 3,3 C 2,8 C 97 % 1024,8 hPa 0,0 l/m 0 min 2 min 0 W/m 16,1 km/h (3 Bft) 95,74 %
17.03.2021 04:26 3,9 C 3,3 C 2,8 C 97 % 1024,8 hPa 0,0 l/m 0 min 2 min 0 W/m 19,3 km/h (3 Bft) 95,74 %
17.03.2021 04:28 3,8 C 3,3 C 2,3 C 97 % 1024,7 hPa 0,0 l/m 0 min 2 min 0 W/m 19,3 km/h (3 Bft) 95,74 %
17.03.2021 04:30 3,8 C 3,3 C 2,3 C 97 % 1024,8 hPa 0,0 l/m 0 min 2 min 0 W/m 16,1 km/h (3 Bft) 93,48 %
17.03.2021 04:32 3,8 C 3,3 C 2,3 C 97 % 1024,8 hPa 0,0 l/m 0 min 2 min 0 W/m 16,1 km/h (3 Bft) 95,74 %
17.03.2021 04:34 3,8 C 3,3 C 2,3 C 97 % 1024,8 hPa 0,0 l/m 0 min 2 min 0 W/m 16,1 km/h (3 Bft) 95,74 %
17.03.2021 04:36 3,8 C 3,3 C 2,3 C 97 % 1024,8 hPa 0,0 l/m 0 min 2 min 0 W/m 12,9 km/h (3 Bft) 97,87 %
17.03.2021 04:38 3,8 C 3,3 C 2,3 C 97 % 1024,7 hPa 0,0 l/m 0 min 2 min 0 W/m 9,7 km/h (2 Bft) 95,74 %
17.03.2021 04:40 3,8 C 3,3 C 2,3 C 97 % 1024,7 hPa 0,0 l/m 0 min 2 min 0 W/m 12,9 km/h (3 Bft) 97,83 %
17.03.2021 04:42 3,7 C 3,3 C 2,3 C 97 % 1024,7 hPa 0,0 l/m 0 min 0 min 0 W/m 9,7 km/h (2 Bft) 93,62 %
17.03.2021 04:44 3,7 C 3,3 C 2,3 C 97 % 1024,8 hPa 0,0 l/m 0 min 2 min 0 W/m 12,9 km/h (3 Bft) 97,87 %
17.03.2021 04:46 3,7 C 3,3 C 2,8 C 97 % 1024,7 hPa 0,0 l/m 0 min 2 min 0 W/m 9,7 km/h (2 Bft) 97,87 %
17.03.2021 04:48 3,7 C 3,3 C 2,8 C 97 % 1024,8 hPa 0,0 l/m 0 min 2 min 0 W/m 9,7 km/h (2 Bft) 95,74 %
17.03.2021 04:50 3,7 C 3,3 C 2,8 C 97 % 1024,8 hPa 0,0 l/m 0 min 2 min 0 W/m 12,9 km/h (3 Bft) 97,87 %
17.03.2021 04:52 3,8 C 3,3 C 2,8 C 97 % 1024,8 hPa 0,0 l/m 0 min 2 min 0 W/m 9,7 km/h (2 Bft) 91,49 %
17.03.2021 04:54 3,8 C 3,3 C 2,8 C 97 % 1024,8 hPa 0,0 l/m 0 min 2 min 0 W/m 12,9 km/h (3 Bft) 97,83 %
17.03.2021 04:56 3,8 C 3,3 C 2,8 C 97 % 1024,8 hPa 0,0 l/m 0 min 2 min 0 W/m 9,7 km/h (2 Bft) 97,87 %
17.03.2021 04:58 3,8 C 3,3 C 2,8 C 97 % 1024,7 hPa 0,0 l/m 0 min 2 min 0 W/m 12,9 km/h (3 Bft) 97,87 %
17.03.2021 05:00 3,8 C 3,3 C 2,8 C 97 % 1024,7 hPa 0,0 l/m 0 min 2 min 0 W/m 12,9 km/h (3 Bft) 97,87 %
17.03.2021 05:02 3,8 C 3,3 C 2,8 C 97 % 1024,6 hPa 0,0 l/m 0 min 2 min 0 W/m 12,9 km/h (3 Bft) 97,87 %
17.03.2021 05:04 3,7 C 3,3 C 2,8 C 97 % 1024,7 hPa 0,0 l/m 0 min 2 min 0 W/m 12,9 km/h (3 Bft) 97,87 %
17.03.2021 05:06 3,7 C 3,3 C 2,8 C 97 % 1024,7 hPa 0,0 l/m 0 min 2 min 0 W/m 9,7 km/h (2 Bft) 95,65 %
17.03.2021 05:08 3,7 C 3,3 C 2,8 C 97 % 1024,6 hPa 0,0 l/m 0 min 2 min 0 W/m 6,4 km/h (2 Bft) 95,74 %
17.03.2021 05:10 3,7 C 3,3 C 2,8 C 97 % 1024,6 hPa 0,0 l/m 0 min 2 min 0 W/m 9,7 km/h (2 Bft) 97,87 %
17.03.2021 05:12 3,7 C 3,3 C 2,8 C 97 % 1024,7 hPa 0,0 l/m 0 min 2 min 0 W/m 9,7 km/h (2 Bft) 97,87 %
17.03.2021 05:14 3,7 C 3,3 C 2,8 C 97 % 1024,7 hPa 0,0 l/m 0 min 2 min 0 W/m 16,1 km/h (3 Bft) 97,87 %
17.03.2021 05:16 3,7 C 3,3 C 2,3 C 97 % 1024,8 hPa 0,0 l/m 0 min 2 min 0 W/m 22,5 km/h (4 Bft) 95,65 %
17.03.2021 05:18 3,7 C 3,3 C 2,3 C 97 % 1024,8 hPa 0,0 l/m 0 min 2 min 0 W/m 19,3 km/h (3 Bft) 97,87 %
17.03.2021 05:20 3,7 C 3,3 C 2,3 C 97 % 1024,8 hPa 0,0 l/m 0 min 2 min 0 W/m 16,1 km/h (3 Bft) 97,87 %
17.03.2021 05:22 3,7 C 3,3 C 2,3 C 97 % 1024,8 hPa 0,0 l/m 0 min 2 min 0 W/m 9,7 km/h (2 Bft) 55,56 %
17.03.2021 05:24 3,7 C 3,3 C 2,3 C 97 % 1024,8 hPa 0,0 l/m 0 min 2 min 0 W/m 12,9 km/h (3 Bft) 93,62 %
17.03.2021 05:26 3,6 C 3,3 C 2,3 C 97 % 1024,8 hPa 0,0 l/m 0 min 0 min 0 W/m 19,3 km/h (3 Bft) 95,74 %
17.03.2021 05:28 3,6 C 3,3 C 2,3 C 97 % 1024,8 hPa 0,0 l/m 0 min 2 min 0 W/m 9,7 km/h (2 Bft) 93,48 %
17.03.2021 05:30 3,6 C 3,3 C 2,3 C 97 % 1024,8 hPa 0,0 l/m 0 min 0 min 0 W/m 9,7 km/h (2 Bft) 95,74 %
17.03.2021 05:32 3,6 C 3,3 C 2,3 C 97 % 1024,8 hPa 0,0 l/m 0 min 0 min 0 W/m 12,9 km/h (3 Bft) 95,74 %
17.03.2021 05:34 3,6 C 3,3 C 2,3 C 97 % 1024,8 hPa 0,0 l/m 0 min 0 min 0 W/m 6,4 km/h (2 Bft) 95,74 %
17.03.2021 05:36 3,6 C 3,3 C 2,3 C 97 % 1024,8 hPa 0,0 l/m 0 min 0 min 0 W/m 3,2 km/h (1 Bft) 95,74 %
17.03.2021 05:38 3,6 C 3,3 C 2,3 C 97 % 1024,8 hPa 0,0 l/m 0 min 0 min 0 W/m 12,9 km/h (3 Bft) 95,74 %
17.03.2021 05:40 3,7 C 3,3 C 2,8 C 97 % 1024,8 hPa 0,2 l/m 0 min 0 min 0 W/m 6,4 km/h (2 Bft) 95,65 %
17.03.2021 05:42 3,6 C 3,3 C 2,8 C 97 % 1024,8 hPa 0,0 l/m 0 min 0 min 0 W/m 6,4 km/h (2 Bft) 95,74 %
17.03.2021 05:44 3,7 C 3,3 C 2,8 C 97 % 1024,9 hPa 0,0 l/m 0 min 0 min 0 W/m 9,7 km/h (2 Bft) 95,74 %
17.03.2021 05:46 3,7 C 3,3 C 2,8 C 97 % 1024,9 hPa 0,0 l/m 0 min 0 min 0 W/m 12,9 km/h (3 Bft) 95,74 %
17.03.2021 05:48 3,7 C 3,3 C 2,8 C 97 % 1024,8 hPa 0,0 l/m 0 min 0 min 0 W/m 6,4 km/h (2 Bft) 95,74 %
17.03.2021 05:50 3,7 C 3,3 C 2,3 C 97 % 1024,9 hPa 0,0 l/m 0 min 0 min 0 W/m 9,7 km/h (2 Bft) 95,74 %
17.03.2021 05:52 3,6 C 3,3 C 2,8 C 97 % 1024,9 hPa 0,0 l/m 0 min 0 min 0 W/m 3,2 km/h (1 Bft) 95,65 %
17.03.2021 05:54 3,7 C 3,3 C 2,8 C 97 % 1024,9 hPa 0,0 l/m 0 min 0 min 0 W/m 9,7 km/h (2 Bft) 95,74 %
17.03.2021 05:56 3,7 C 3,3 C 2,8 C 97 % 1024,9 hPa 0,0 l/m 0 min 0 min 0 W/m 6,4 km/h (2 Bft) 93,62 %
17.03.2021 05:58 3,7 C 3,3 C 2,8 C 97 % 1025,0 hPa 0,0 l/m 0 min 0 min 0 W/m 12,9 km/h (3 Bft) 93,62 %
17.03.2021 06:00 3,7 C 3,3 C 2,8 C 97 % 1024,9 hPa 0,0 l/m 0 min 2 min 0 W/m 6,4 km/h (2 Bft) 95,74 %
17.03.2021 06:02 3,7 C 3,3 C 2,8 C 97 % 1024,9 hPa 0,0 l/m 0 min 0 min 0 W/m 6,4 km/h (2 Bft) 95,74 %
17.03.2021 06:04 3,7 C 3,3 C 2,8 C 97 % 1024,9 hPa 0,0 l/m 0 min 2 min 0 W/m 6,4 km/h (2 Bft) 97,83 %
17.03.2021 06:08 3,7 C 3,3 C 2,8 C 97 % 1024,9 hPa 0,0 l/m 0 min 0 min 0 W/m 6,4 km/h (2 Bft) 96,67 %
17.03.2021 06:10 3,7 C 3,3 C 2,8 C 97 % 1024,9 hPa 0,0 l/m 0 min 0 min 0 W/m 9,7 km/h (2 Bft) 98,04 %
17.03.2021 06:12 3,7 C 3,3 C 2,8 C 97 % 1025,0 hPa 0,0 l/m 0 min 0 min 0 W/m 6,4 km/h (2 Bft) 97,87 %
17.03.2021 06:14 3,7 C 3,3 C 2,8 C 97 % 1025,0 hPa 0,0 l/m 0 min 0 min 0 W/m 6,4 km/h (2 Bft) 97,87 %
17.03.2021 06:16 3,7 C 3,3 C 2,8 C 97 % 1025,0 hPa 0,0 l/m 0 min 0 min 0 W/m 12,9 km/h (3 Bft) 97,83 %
17.03.2021 06:18 3,7 C 3,3 C 2,8 C 97 % 1025,0 hPa 0,0 l/m 0 min 0 min 0 W/m 6,4 km/h (2 Bft) 97,87 %
17.03.2021 06:20 3,7 C 3,3 C 2,8 C 97 % 1025,1 hPa 0,0 l/m 0 min 0 min 0 W/m 6,4 km/h (2 Bft) 95,74 %
17.03.2021 06:22 3,7 C 3,3 C 2,8 C 97 % 1025,1 hPa 0,0 l/m 0 min 0 min 0 W/m 3,2 km/h (1 Bft) 100,00 %
17.03.2021 06:24 3,7 C 3,3 C 2,8 C 97 % 1025,1 hPa 0,0 l/m 0 min 0 min 0 W/m 9,7 km/h (2 Bft) 95,92 %
17.03.2021 06:26 3,7 C 3,3 C 2,8 C 97 % 1025,1 hPa 0,0 l/m 0 min 0 min 0 W/m 3,2 km/h (1 Bft) 97,96 %
17.03.2021 06:28 3,7 C 3,3 C 2,8 C 97 % 1025,1 hPa 0,0 l/m 0 min 0 min 0 W/m 9,7 km/h (2 Bft) 97,83 %
17.03.2021 06:30 3,8 C 3,3 C 2,8 C 97 % 1025,0 hPa 0,0 l/m 0 min 0 min 0 W/m 6,4 km/h (2 Bft) 97,87 %
17.03.2021 06:32 3,8 C 3,3 C 2,8 C 97 % 1025,1 hPa 0,0 l/m 0 min 0 min 0 W/m 9,7 km/h (2 Bft) 97,73 %
17.03.2021 06:34 3,8 C 3,3 C 2,8 C 98 % 1025,1 hPa 0,0 l/m 0 min 0 min 0 W/m 9,7 km/h (2 Bft) 97,92 %
17.03.2021 06:36 3,8 C 3,3 C 2,8 C 97 % 1025,1 hPa 0,0 l/m 0 min 0 min 0 W/m 12,9 km/h (3 Bft) 95,92 %
17.03.2021 06:38 3,8 C 3,3 C 2,8 C 98 % 1025,1 hPa 0,0 l/m 0 min 0 min 0 W/m 6,4 km/h (2 Bft) 100,00 %
17.03.2021 06:40 3,8 C 3,3 C 2,8 C 98 % 1025,1 hPa 0,0 l/m 0 min 0 min 0 W/m 6,4 km/h (2 Bft) 100,00 %
17.03.2021 06:42 3,8 C 3,3 C 2,8 C 98 % 1025,1 hPa 0,0 l/m 0 min 0 min 0 W/m 9,7 km/h (2 Bft) 100,00 %
17.03.2021 06:44 3,8 C 3,3 C 2,8 C 98 % 1025,1 hPa 0,0 l/m 0 min 0 min 0 W/m 9,7 km/h (2 Bft) 100,00 %
17.03.2021 06:46 3,8 C 3,3 C 2,8 C 98 % 1025,2 hPa 0,0 l/m 0 min 0 min 0 W/m 9,7 km/h (2 Bft) 97,96 %
17.03.2021 06:48 3,8 C 3,3 C 2,8 C 98 % 1025,2 hPa 0,0 l/m 0 min 0 min 0 W/m 6,4 km/h (2 Bft) 100,00 %
17.03.2021 06:50 3,8 C 3,3 C 2,8 C 98 % 1025,1 hPa 0,0 l/m 0 min 0 min 0 W/m 9,7 km/h (2 Bft) 100,00 %
17.03.2021 06:52 3,8 C 3,3 C 2,8 C 98 % 1025,1 hPa 0,0 l/m 0 min 0 min 0 W/m 12,9 km/h (3 Bft) 97,83 %
17.03.2021 06:54 3,8 C 3,3 C 2,8 C 98 % 1025,2 hPa 0,0 l/m 0 min 0 min 0 W/m 12,9 km/h (3 Bft) 97,73 %
17.03.2021 06:56 3,8 C 3,3 C 2,8 C 98 % 1025,1 hPa 0,0 l/m 0 min 0 min 0 W/m 12,9 km/h (3 Bft) 89,80 %
17.03.2021 06:58 3,8 C 3,3 C 2,8 C 98 % 1025,1 hPa 0,0 l/m 0 min 0 min 0 W/m 9,7 km/h (2 Bft) 97,92 %
17.03.2021 07:00 3,8 C 3,3 C 2,8 C 98 % 1025,1 hPa 0,0 l/m 0 min 0 min 0 W/m 12,9 km/h (3 Bft) 97,87 %
17.03.2021 07:02 3,8 C 3,3 C 2,8 C 98 % 1025,1 hPa 0,0 l/m 0 min 0 min 0 W/m 12,9 km/h (3 Bft) 95,35 %
17.03.2021 07:04 3,8 C 3,3 C 2,8 C 98 % 1025,1 hPa 0,0 l/m 0 min 0 min 0 W/m 12,9 km/h (3 Bft) 97,87 %
17.03.2021 07:06 3,8 C 3,3 C 2,8 C 98 % 1025,2 hPa 0,0 l/m 0 min 0 min 0 W/m 9,7 km/h (2 Bft) 93,75 %
17.03.2021 07:08 3,8 C 3,3 C 2,8 C 98 % 1025,2 hPa 0,0 l/m 0 min 0 min 0 W/m 9,7 km/h (2 Bft) 97,96 %
17.03.2021 07:10 3,9 C 3,3 C 2,8 C 98 % 1025,2 hPa 0,0 l/m 0 min 0 min 0 W/m 6,4 km/h (2 Bft) 97,87 %
17.03.2021 07:12 3,9 C 3,3 C 2,8 C 98 % 1025,1 hPa 0,0 l/m 0 min 0 min 2 W/m 12,9 km/h (3 Bft) 95,74 %
17.03.2021 07:14 3,9 C 3,3 C 2,8 C 98 % 1025,2 hPa 0,0 l/m 0 min 2 min 2 W/m 16,1 km/h (3 Bft) 93,02 %
17.03.2021 07:16 3,9 C 3,3 C 2,8 C 98 % 1025,1 hPa 0,0 l/m 0 min 2 min 5 W/m 12,9 km/h (3 Bft) 97,87 %
17.03.2021 07:18 3,9 C 3,3 C 2,8 C 98 % 1025,2 hPa 0,0 l/m 0 min 2 min 6 W/m 19,3 km/h (3 Bft) 97,96 %
17.03.2021 07:20 3,9 C 3,3 C 2,8 C 98 % 1025,2 hPa 0,0 l/m 0 min 0 min 9 W/m 6,4 km/h (2 Bft) 97,92 %
17.03.2021 07:22 3,9 C 3,3 C 2,8 C 98 % 1025,2 hPa 0,0 l/m 0 min 0 min 10 W/m 12,9 km/h (3 Bft) 97,87 %
17.03.2021 07:24 3,9 C 3,3 C 2,8 C 98 % 1025,2 hPa 0,0 l/m 0 min 0 min 10 W/m 12,9 km/h (3 Bft) 95,74 %
17.03.2021 07:26 3,9 C 3,3 C 2,8 C 98 % 1025,2 hPa 0,0 l/m 0 min 0 min 10 W/m 12,9 km/h (3 Bft) 97,62 %
17.03.2021 07:28 3,9 C 3,3 C 2,8 C 98 % 1025,2 hPa 0,0 l/m 0 min 0 min 11 W/m 12,9 km/h (3 Bft) 97,92 %
17.03.2021 07:30 3,9 C 3,3 C 2,8 C 98 % 1025,2 hPa 0,0 l/m 0 min 0 min 11 W/m 9,7 km/h (2 Bft) 94,00 %
17.03.2021 07:32 3,9 C 3,3 C 2,8 C 98 % 1025,2 hPa 0,0 l/m 0 min 0 min 12 W/m 16,1 km/h (3 Bft) 95,74 %
17.03.2021 07:34 3,9 C 3,3 C 2,8 C 98 % 1025,2 hPa 0,0 l/m 0 min 0 min 9 W/m 16,1 km/h (3 Bft) 91,49 %
17.03.2021 07:36 3,9 C 3,3 C 2,8 C 98 % 1025,2 hPa 0,0 l/m 0 min 0 min 8 W/m 16,1 km/h (3 Bft) 96,23 %
17.03.2021 07:38 3,9 C 3,3 C 2,8 C 98 % 1025,2 hPa 0,0 l/m 0 min 0 min 7 W/m 9,7 km/h (2 Bft) 94,59 %
17.03.2021 07:40 3,9 C 3,3 C 2,8 C 98 % 1025,2 hPa 0,0 l/m 0 min 0 min 5 W/m 12,9 km/h (3 Bft) 95,74 %
17.03.2021 07:42 3,9 C 3,3 C 2,8 C 98 % 1025,2 hPa 0,0 l/m 0 min 0 min 10 W/m 9,7 km/h (2 Bft) 95,83 %
17.03.2021 07:44 3,9 C 3,3 C 2,8 C 98 % 1025,2 hPa 0,0 l/m 0 min 2 min 13 W/m 9,7 km/h (2 Bft) 97,96 %
17.03.2021 07:46 4,0 C 3,9 C 2,8 C 98 % 1025,1 hPa 0,0 l/m 0 min 0 min 13 W/m 9,7 km/h (2 Bft) 100,00 %
17.03.2021 07:48 4,0 C 3,9 C 2,8 C 98 % 1025,2 hPa 0,0 l/m 0 min 2 min 18 W/m 16,1 km/h (3 Bft) 97,87 %
17.03.2021 07:50 4,0 C 3,9 C 2,8 C 98 % 1025,1 hPa 0,0 l/m 0 min 0 min 21 W/m 9,7 km/h (2 Bft) 97,62 %
17.03.2021 07:52 4,0 C 3,9 C 2,8 C 98 % 1025,1 hPa 0,0 l/m 0 min 2 min 29 W/m 12,9 km/h (3 Bft) 98,04 %
17.03.2021 07:54 4,0 C 3,9 C 3,4 C 98 % 1025,1 hPa 0,0 l/m 0 min 0 min 31 W/m 9,7 km/h (2 Bft) 97,87 %
17.03.2021 07:56 4,0 C 3,9 C 3,4 C 98 % 1025,1 hPa 0,0 l/m 0 min 0 min 41 W/m 9,7 km/h (2 Bft) 97,87 %
17.03.2021 07:58 4,0 C 3,9 C 3,4 C 98 % 1025,1 hPa 0,0 l/m 0 min 0 min 42 W/m 9,7 km/h (2 Bft) 98,11 %
17.03.2021 08:00 4,0 C 3,9 C 3,4 C 98 % 1025,1 hPa 0,0 l/m 0 min 2 min 37 W/m 12,9 km/h (3 Bft) 97,30 %
17.03.2021 08:02 4,0 C 3,9 C 3,4 C 98 % 1025,1 hPa 0,0 l/m 0 min 0 min 32 W/m 16,1 km/h (3 Bft) 95,83 %
17.03.2021 08:04 4,0 C 3,9 C 3,4 C 98 % 1025,1 hPa 0,0 l/m 0 min 0 min 29 W/m 16,1 km/h (3 Bft) 97,92 %
17.03.2021 08:06 4,0 C 3,9 C 3,4 C 98 % 1025,1 hPa 0,0 l/m 0 min 0 min 36 W/m 12,9 km/h (3 Bft) 97,92 %
17.03.2021 08:08 4,0 C 3,9 C 3,4 C 98 % 1025,0 hPa 0,0 l/m 0 min 0 min 39 W/m 16,1 km/h (3 Bft) 97,87 %
17.03.2021 08:10 4,0 C 3,9 C 3,4 C 98 % 1025,0 hPa 0,0 l/m 0 min 2 min 42 W/m 16,1 km/h (3 Bft) 95,83 %
17.03.2021 08:12 4,0 C 3,9 C 3,4 C 98 % 1025,0 hPa 0,0 l/m 0 min 2 min 64 W/m 9,7 km/h (2 Bft) 97,92 %
17.03.2021 08:14 4,0 C 3,9 C 3,4 C 98 % 1025,0 hPa 0,2 l/m 0 min 0 min 98 W/m 9,7 km/h (2 Bft) 100,00 %
17.03.2021 08:16 4,1 C 4,4 C 3,4 C 98 % 1025,0 hPa 0,0 l/m 0 min 0 min 73 W/m 12,9 km/h (3 Bft) 95,65 %
17.03.2021 08:18 4,1 C 4,4 C 3,4 C 98 % 1025,1 hPa 0,0 l/m 0 min 0 min 59 W/m 16,1 km/h (3 Bft) 98,11 %
17.03.2021 08:20 4,1 C 4,4 C 3,4 C 98 % 1025,1 hPa 0,0 l/m 0 min 0 min 57 W/m 12,9 km/h (3 Bft) 97,96 %
17.03.2021 08:22 4,1 C 4,4 C 3,4 C 98 % 1025,1 hPa 0,0 l/m 0 min 0 min 61 W/m 9,7 km/h (2 Bft) 97,87 %
17.03.2021 08:24 4,1 C 4,4 C 3,4 C 98 % 1025,1 hPa 0,0 l/m 0 min 0 min 60 W/m 12,9 km/h (3 Bft) 97,96 %
17.03.2021 08:26 4,2 C 4,4 C 3,4 C 98 % 1025,1 hPa 0,0 l/m 0 min 0 min 59 W/m 16,1 km/h (3 Bft) 97,92 %
17.03.2021 08:28 4,2 C 4,4 C 3,4 C 98 % 1025,1 hPa 0,0 l/m 0 min 0 min 52 W/m 12,9 km/h (3 Bft) 97,14 %
17.03.2021 08:30 4,3 C 4,4 C 3,4 C 98 % 1025,0 hPa 0,0 l/m 0 min 0 min 68 W/m 12,9 km/h (3 Bft) 97,87 %
17.03.2021 08:32 4,2 C 4,4 C 3,4 C 98 % 1025,0 hPa 0,0 l/m 0 min 0 min 82 W/m 19,3 km/h (3 Bft) 98,15 %
17.03.2021 08:34 4,3 C 4,4 C 3,4 C 98 % 1025,1 hPa 0,0 l/m 0 min 0 min 68 W/m 9,7 km/h (2 Bft) 100,00 %
17.03.2021 08:36 4,3 C 4,4 C 3,4 C 98 % 1025,1 hPa 0,0 l/m 0 min 0 min 51 W/m 9,7 km/h (2 Bft) 100,00 %
17.03.2021 08:38 4,3 C 4,4 C 3,4 C 98 % 1025,2 hPa 0,0 l/m 0 min 0 min 39 W/m 16,1 km/h (3 Bft) 100,00 %
17.03.2021 08:40 4,3 C 4,4 C 3,4 C 98 % 1025,2 hPa 0,0 l/m 0 min 0 min 34 W/m 9,7 km/h (2 Bft) 100,00 %
17.03.2021 08:42 4,3 C 4,4 C 3,4 C 98 % 1025,2 hPa 0,0 l/m 0 min 0 min 33 W/m 6,4 km/h (2 Bft) 100,00 %
17.03.2021 08:44 4,3 C 4,4 C 3,4 C 98 % 1025,2 hPa 0,0 l/m 0 min 0 min 46 W/m 19,3 km/h (3 Bft) 100,00 %
17.03.2021 08:46 4,3 C 4,4 C 3,4 C 98 % 1025,2 hPa 0,0 l/m 0 min 0 min 51 W/m 9,7 km/h (2 Bft) 100,00 %
17.03.2021 08:48 4,3 C 4,4 C 3,4 C 98 % 1025,2 hPa 0,0 l/m 0 min 0 min 79 W/m 12,9 km/h (3 Bft) 100,00 %
17.03.2021 08:50 4,3 C 4,4 C 3,4 C 98 % 1025,2 hPa 0,0 l/m 0 min 0 min 82 W/m 6,4 km/h (2 Bft) 100,00 %
17.03.2021 08:52 4,3 C 4,4 C 3,4 C 98 % 1025,3 hPa 0,0 l/m 0 min 0 min 76 W/m 6,4 km/h (2 Bft) 100,00 %
17.03.2021 08:54 4,3 C 4,4 C 3,4 C 98 % 1025,3 hPa 0,0 l/m 0 min 0 min 72 W/m 22,5 km/h (4 Bft) 100,00 %
17.03.2021 08:56 4,2 C 4,4 C 3,4 C 98 % 1025,3 hPa 0,0 l/m 0 min 0 min 68 W/m 12,9 km/h (3 Bft) 100,00 %
17.03.2021 08:58 4,2 C 4,4 C 3,4 C 98 % 1025,4 hPa 0,0 l/m 0 min 0 min 71 W/m 16,1 km/h (3 Bft) 100,00 %
17.03.2021 09:00 4,1 C 4,4 C 3,4 C 98 % 1025,4 hPa 0,0 l/m 0 min 0 min 60 W/m 12,9 km/h (3 Bft) 100,00 %
17.03.2021 09:02 4,1 C 4,4 C 3,4 C 98 % 1025,4 hPa 0,0 l/m 0 min 0 min 61 W/m 16,1 km/h (3 Bft) 100,00 %
17.03.2021 09:04 4,1 C 4,4 C 3,4 C 98 % 1025,4 hPa 0,0 l/m 0 min 0 min 68 W/m 16,1 km/h (3 Bft) 100,00 %
17.03.2021 09:06 4,1 C 4,4 C 3,4 C 98 % 1025,5 hPa 0,0 l/m 0 min 0 min 81 W/m 9,7 km/h (2 Bft) 97,87 %
17.03.2021 09:08 4,1 C 4,4 C 3,4 C 98 % 1025,5 hPa 0,0 l/m 0 min 0 min 83 W/m 9,7 km/h (2 Bft) 100,00 %
17.03.2021 09:10 4,1 C 4,4 C 3,4 C 98 % 1025,5 hPa 0,0 l/m 0 min 0 min 80 W/m 16,1 km/h (3 Bft) 100,00 %
17.03.2021 09:12 4,1 C 4,4 C 3,4 C 98 % 1025,5 hPa 0,0 l/m 0 min 0 min 75 W/m 12,9 km/h (3 Bft) 100,00 %
17.03.2021 09:14 4,1 C 4,4 C 3,4 C 98 % 1025,6 hPa 0,0 l/m 0 min 0 min 76 W/m 9,7 km/h (2 Bft) 100,00 %
17.03.2021 09:16 4,1 C 4,4 C 3,4 C 98 % 1025,5 hPa 0,0 l/m 0 min 0 min 89 W/m 22,5 km/h (4 Bft) 100,00 %
17.03.2021 09:18 4,1 C 4,4 C 3,4 C 97 % 1025,5 hPa 0,0 l/m 0 min 0 min 106 W/m 19,3 km/h (3 Bft) 100,00 %
17.03.2021 09:20 4,1 C 5,0 C 3,4 C 98 % 1025,5 hPa 0,0 l/m 0 min 0 min 116 W/m 6,4 km/h (2 Bft) 98,15 %
17.03.2021 09:22 4,1 C 5,0 C 3,9 C 97 % 1025,5 hPa 0,0 l/m 0 min 0 min 150 W/m 0,0 km/h (0 Bft) 100,00 %
17.03.2021 09:24 4,2 C 5,0 C 3,9 C 97 % 1025,5 hPa 0,0 l/m 2 min 0 min 195 W/m 3,2 km/h (1 Bft) 100,00 %
17.03.2021 09:26 4,3 C 5,6 C 3,9 C 97 % 1025,5 hPa 0,0 l/m 0 min 0 min 172 W/m 3,2 km/h (1 Bft) 100,00 %
17.03.2021 09:28 4,3 C 5,6 C 3,9 C 97 % 1025,5 hPa 0,0 l/m 0 min 0 min 138 W/m 16,1 km/h (3 Bft) 100,00 %
17.03.2021 09:30 4,3 C 5,6 C 3,9 C 97 % 1025,5 hPa 0,0 l/m 0 min 0 min 147 W/m 12,9 km/h (3 Bft) 100,00 %
17.03.2021 09:32 4,4 C 5,6 C 3,9 C 97 % 1025,6 hPa 0,0 l/m 0 min 0 min 193 W/m 12,9 km/h (3 Bft) 100,00 %
17.03.2021 09:34 4,4 C 6,1 C 4,5 C 97 % 1025,5 hPa 0,0 l/m 2 min 0 min 215 W/m 12,9 km/h (3 Bft) 97,96 %
17.03.2021 09:36 4,4 C 6,1 C 4,5 C 97 % 1025,5 hPa 0,0 l/m 0 min 0 min 163 W/m 12,9 km/h (3 Bft) 100,00 %
17.03.2021 09:38 4,5 C 6,1 C 3,9 C 97 % 1025,5 hPa 0,0 l/m 0 min 0 min 164 W/m 12,9 km/h (3 Bft) 100,00 %
17.03.2021 09:40 4,5 C 6,1 C 3,9 C 97 % 1025,5 hPa 0,0 l/m 0 min 0 min 193 W/m 16,1 km/h (3 Bft) 100,00 %
17.03.2021 09:42 4,5 C 6,1 C 4,5 C 96 % 1025,5 hPa 0,0 l/m 0 min 0 min 197 W/m 16,1 km/h (3 Bft) 100,00 %
17.03.2021 09:44 4,6 C 6,1 C 4,5 C 96 % 1025,6 hPa 0,0 l/m 0 min 0 min 207 W/m 16,1 km/h (3 Bft) 100,00 %
17.03.2021 09:46 4,6 C 6,1 C 4,5 C 96 % 1025,6 hPa 0,0 l/m 0 min 0 min 213 W/m 9,7 km/h (2 Bft) 100,00 %
17.03.2021 09:48 4,6 C 6,1 C 4,5 C 96 % 1025,6 hPa 0,0 l/m 0 min 0 min 203 W/m 19,3 km/h (3 Bft) 100,00 %
17.03.2021 09:50 4,7 C 6,1 C 4,5 C 96 % 1025,6 hPa 0,0 l/m 0 min 0 min 202 W/m 19,3 km/h (3 Bft) 100,00 %
17.03.2021 09:52 4,8 C 6,1 C 4,5 C 95 % 1025,6 hPa 0,0 l/m 2 min 0 min 221 W/m 16,1 km/h (3 Bft) 100,00 %
17.03.2021 09:54 4,8 C 6,7 C 5,0 C 95 % 1025,6 hPa 0,0 l/m 0 min 0 min 202 W/m 9,7 km/h (2 Bft) 100,00 %
17.03.2021 09:56 4,8 C 6,1 C 5,0 C 95 % 1025,6 hPa 0,0 l/m 0 min 0 min 199 W/m 16,1 km/h (3 Bft) 100,00 %
17.03.2021 09:58 4,9 C 6,7 C 5,0 C 94 % 1025,8 hPa 0,0 l/m 2 min 0 min 242 W/m 25,7 km/h (4 Bft) 95,74 %
17.03.2021 10:00 4,9 C 6,7 C 5,0 C 94 % 1025,8 hPa 0,0 l/m 2 min 0 min 260 W/m 19,3 km/h (3 Bft) 100,00 %
17.03.2021 10:02 5,0 C 7,2 C 5,6 C 94 % 1025,7 hPa 0,0 l/m 2 min 0 min 274 W/m 19,3 km/h (3 Bft) 97,96 %
17.03.2021 10:04 5,1 C 7,2 C 5,6 C 93 % 1025,7 hPa 0,0 l/m 2 min 0 min 257 W/m 16,1 km/h (3 Bft) 95,74 %
17.03.2021 10:06 5,1 C 7,2 C 5,6 C 93 % 1025,7 hPa 0,0 l/m 0 min 0 min 199 W/m 12,9 km/h (3 Bft) 100,00 %
17.03.2021 10:08 5,2 C 6,7 C 5,0 C 93 % 1025,8 hPa 0,0 l/m 0 min 0 min 173 W/m 12,9 km/h (3 Bft) 97,87 %
17.03.2021 10:10 5,3 C 6,7 C 5,0 C 92 % 1025,8 hPa 0,0 l/m 0 min 0 min 149 W/m 16,1 km/h (3 Bft) 93,62 %
17.03.2021 10:12 5,2 C 6,1 C 5,0 C 92 % 1025,8 hPa 0,0 l/m 0 min 0 min 187 W/m 19,3 km/h (3 Bft) 96,30 %
17.03.2021 10:14 5,2 C 6,1 C 5,0 C 91 % 1025,8 hPa 0,0 l/m 0 min 0 min 216 W/m 22,5 km/h (4 Bft) 95,74 %
17.03.2021 10:16 5,3 C 6,1 C 5,6 C 91 % 1025,8 hPa 0,0 l/m 2 min 0 min 262 W/m 16,1 km/h (3 Bft) 95,83 %
17.03.2021 10:18 5,3 C 6,7 C 5,6 C 91 % 1025,8 hPa 0,0 l/m 2 min 0 min 272 W/m 9,7 km/h (2 Bft) 97,92 %
17.03.2021 10:20 5,4 C 6,7 C 5,6 C 90 % 1025,7 hPa 0,0 l/m 2 min 0 min 259 W/m 16,1 km/h (3 Bft) 93,75 %
17.03.2021 10:22 5,4 C 7,2 C 5,6 C 90 % 1025,8 hPa 0,0 l/m 2 min 0 min 254 W/m 12,9 km/h (3 Bft) 93,62 %
17.03.2021 10:24 5,5 C 7,2 C 6,1 C 90 % 1025,7 hPa 0,0 l/m 0 min 0 min 228 W/m 16,1 km/h (3 Bft) 97,22 %
17.03.2021 10:26 5,6 C 7,2 C 5,6 C 90 % 1025,6 hPa 0,0 l/m 0 min 0 min 194 W/m 12,9 km/h (3 Bft) 92,59 %
17.03.2021 10:28 5,6 C 6,7 C 5,6 C 89 % 1025,6 hPa 0,0 l/m 0 min 0 min 205 W/m 19,3 km/h (3 Bft) 95,83 %
17.03.2021 10:30 5,6 C 6,7 C 5,6 C 88 % 1025,6 hPa 0,0 l/m 0 min 0 min 190 W/m 12,9 km/h (3 Bft) 97,96 %
17.03.2021 10:32 5,6 C 6,7 C 5,0 C 88 % 1025,6 hPa 0,0 l/m 0 min 0 min 179 W/m 12,9 km/h (3 Bft) 97,92 %
17.03.2021 10:34 5,6 C 6,7 C 5,0 C 88 % 1025,6 hPa 0,0 l/m 0 min 0 min 192 W/m 16,1 km/h (3 Bft) 95,65 %
17.03.2021 10:36 5,6 C 6,7 C 5,0 C 87 % 1025,6 hPa 0,0 l/m 0 min 0 min 182 W/m 9,7 km/h (2 Bft) 63,83 %
17.03.2021 10:38 5,6 C 6,7 C 5,0 C 87 % 1025,6 hPa 0,0 l/m 0 min 0 min 165 W/m 19,3 km/h (3 Bft) 76,92 %
17.03.2021 10:40 5,7 C 6,1 C 5,0 C 87 % 1025,6 hPa 0,0 l/m 0 min 0 min 139 W/m 29,0 km/h (5 Bft) 94,55 %
17.03.2021 10:42 5,6 C 6,1 C 5,0 C 87 % 1025,6 hPa 0,0 l/m 0 min 0 min 124 W/m 19,3 km/h (3 Bft) 95,83 %
17.03.2021 10:44 5,6 C 6,1 C 4,5 C 86 % 1025,6 hPa 0,0 l/m 0 min 0 min 120 W/m 22,5 km/h (4 Bft) 95,83 %
17.03.2021 10:46 5,6 C 6,1 C 4,5 C 86 % 1025,6 hPa 0,0 l/m 0 min 0 min 116 W/m 25,7 km/h (4 Bft) 95,83 %
17.03.2021 10:48 5,6 C 5,6 C 4,5 C 86 % 1025,6 hPa 0,0 l/m 0 min 0 min 143 W/m 22,5 km/h (4 Bft) 94,44 %
17.03.2021 10:50 5,5 C 5,6 C 4,5 C 86 % 1025,7 hPa 0,0 l/m 0 min 0 min 125 W/m 16,1 km/h (3 Bft) 96,23 %
17.03.2021 10:52 5,5 C 5,6 C 4,5 C 85 % 1025,7 hPa 0,0 l/m 0 min 0 min 118 W/m 16,1 km/h (3 Bft) 97,92 %
17.03.2021 10:54 5,5 C 6,1 C 4,5 C 86 % 1025,7 hPa 0,0 l/m 0 min 0 min 137 W/m 6,4 km/h (2 Bft) 95,74 %
17.03.2021 10:56 5,5 C 6,1 C 4,5 C 86 % 1025,7 hPa 0,0 l/m 0 min 0 min 165 W/m 16,1 km/h (3 Bft) 97,44 %
17.03.2021 10:58 5,5 C 6,1 C 4,5 C 86 % 1025,8 hPa 0,0 l/m 0 min 0 min 156 W/m 19,3 km/h (3 Bft) 97,87 %
17.03.2021 11:00 5,6 C 6,1 C 4,5 C 86 % 1025,7 hPa 0,0 l/m 0 min 0 min 138 W/m 16,1 km/h (3 Bft) 94,44 %
17.03.2021 11:02 5,6 C 6,1 C 4,5 C 86 % 1025,8 hPa 0,0 l/m 0 min 0 min 131 W/m 25,7 km/h (4 Bft) 98,00 %
17.03.2021 11:04 5,5 C 6,1 C 4,5 C 85 % 1025,7 hPa 0,0 l/m 0 min 0 min 163 W/m 29,0 km/h (5 Bft) 97,92 %
17.03.2021 11:06 5,6 C 6,1 C 5,0 C 85 % 1025,7 hPa 0,0 l/m 0 min 0 min 234 W/m 19,3 km/h (3 Bft) 97,87 %
17.03.2021 11:08 5,6 C 6,7 C 5,0 C 85 % 1025,7 hPa 0,0 l/m 0 min 0 min 260 W/m 19,3 km/h (3 Bft) 97,14 %
17.03.2021 11:10 5,6 C 6,7 C 5,6 C 85 % 1025,7 hPa 0,0 l/m 2 min 0 min 282 W/m 12,9 km/h (3 Bft) 100,00 %
17.03.2021 11:12 5,7 C 7,2 C 5,6 C 85 % 1025,7 hPa 0,0 l/m 2 min 0 min 281 W/m 16,1 km/h (3 Bft) 97,92 %
17.03.2021 11:14 5,8 C 7,2 C 5,6 C 85 % 1025,7 hPa 0,0 l/m 0 min 0 min 239 W/m 22,5 km/h (4 Bft) 100,00 %
17.03.2021 11:16 5,8 C 7,2 C 5,6 C 85 % 1025,7 hPa 0,0 l/m 0 min 0 min 205 W/m 12,9 km/h (3 Bft) 100,00 %
17.03.2021 11:18 5,9 C 7,2 C 5,0 C 85 % 1025,7 hPa 0,0 l/m 0 min 0 min 184 W/m 19,3 km/h (3 Bft) 100,00 %
17.03.2021 11:20 5,9 C 7,2 C 5,0 C 84 % 1025,7 hPa 0,0 l/m 0 min 0 min 172 W/m 16,1 km/h (3 Bft) 100,00 %
17.03.2021 11:22 5,9 C 6,7 C 5,0 C 83 % 1025,7 hPa 0,0 l/m 0 min 0 min 167 W/m 35,4 km/h (5 Bft) 100,00 %
17.03.2021 11:24 5,9 C 6,7 C 5,0 C 83 % 1025,7 hPa 0,0 l/m 0 min 0 min 169 W/m 19,3 km/h (3 Bft) 100,00 %
17.03.2021 11:26 5,9 C 6,7 C 5,0 C 82 % 1025,7 hPa 0,0 l/m 0 min 0 min 183 W/m 29,0 km/h (5 Bft) 100,00 %
17.03.2021 11:28 5,9 C 6,7 C 4,5 C 82 % 1025,7 hPa 0,0 l/m 0 min 0 min 202 W/m 19,3 km/h (3 Bft) 100,00 %
17.03.2021 11:30 5,9 C 6,7 C 5,0 C 81 % 1025,7 hPa 0,0 l/m 0 min 0 min 227 W/m 16,1 km/h (3 Bft) 100,00 %
17.03.2021 11:32 5,9 C 6,7 C 5,0 C 81 % 1025,7 hPa 0,0 l/m 2 min 0 min 287 W/m 9,7 km/h (2 Bft) 100,00 %
17.03.2021 11:34 5,9 C 7,2 C 5,6 C 82 % 1025,6 hPa 0,0 l/m 2 min 0 min 308 W/m 12,9 km/h (3 Bft) 97,83 %
17.03.2021 11:36 6,0 C 7,8 C 5,6 C 82 % 1025,6 hPa 0,0 l/m 2 min 0 min 317 W/m 19,3 km/h (3 Bft) 100,00 %
17.03.2021 11:38 6,1 C 7,8 C 6,1 C 82 % 1025,6 hPa 0,0 l/m 2 min 0 min 320 W/m 22,5 km/h (4 Bft) 100,00 %
17.03.2021 11:40 6,1 C 7,8 C 6,1 C 82 % 1025,6 hPa 0,0 l/m 2 min 0 min 343 W/m 32,2 km/h (5 Bft) 100,00 %
17.03.2021 11:42 6,2 C 8,3 C 6,1 C 81 % 1025,6 hPa 0,0 l/m 2 min 0 min 336 W/m 25,7 km/h (4 Bft) 97,96 %
17.03.2021 11:44 6,3 C 8,3 C 6,1 C 81 % 1025,5 hPa 0,0 l/m 2 min 0 min 301 W/m 25,7 km/h (4 Bft) 100,00 %
17.03.2021 11:46 6,3 C 8,9 C 6,7 C 80 % 1025,5 hPa 0,0 l/m 2 min 0 min 301 W/m 12,9 km/h (3 Bft) 97,83 %
17.03.2021 11:48 6,4 C 11,1 C 8,9 C 80 % 1025,5 hPa 0,0 l/m 2 min 0 min 311 W/m 16,1 km/h (3 Bft) 100,00 %
17.03.2021 11:50 6,6 C 12,8 C 10,0 C 80 % 1025,6 hPa 0,0 l/m 2 min 0 min 311 W/m 9,7 km/h (2 Bft) 94,29 %
17.03.2021 11:52 6,9 C 12,8 C 9,5 C 80 % 1025,5 hPa 0,0 l/m 2 min 0 min 311 W/m 16,1 km/h (3 Bft) 100,00 %
17.03.2021 11:54 7,0 C 11,7 C 8,4 C 79 % 1025,5 hPa 0,0 l/m 2 min 0 min 314 W/m 25,7 km/h (4 Bft) 100,00 %
17.03.2021 11:56 7,1 C 11,7 C 8,4 C 78 % 1025,6 hPa 0,0 l/m 2 min 0 min 325 W/m 19,3 km/h (3 Bft) 100,00 %
17.03.2021 11:58 7,1 C 11,1 C 8,4 C 78 % 1025,5 hPa 0,0 l/m 2 min 0 min 339 W/m 25,7 km/h (4 Bft) 97,92 %
17.03.2021 12:00 7,2 C 11,7 C 8,9 C 77 % 1025,5 hPa 0,0 l/m 2 min 0 min 334 W/m 32,2 km/h (5 Bft) 100,00 %
17.03.2021 12:02 7,3 C 11,7 C 10,0 C 77 % 1025,5 hPa 0,0 l/m 2 min 0 min 746 W/m 25,7 km/h (4 Bft) 100,00 %
17.03.2021 12:04 7,4 C 12,2 C 11,1 C 76 % 1025,5 hPa 0,0 l/m 2 min 0 min 817 W/m 35,4 km/h (5 Bft) 97,87 %
17.03.2021 12:08 7,5 C 11,7 C 8,4 C 75 % 1025,5 hPa 0,0 l/m 4 min 0 min 581 W/m 32,2 km/h (5 Bft) 97,78 %
17.03.2021 12:10 7,5 C 11,1 C 7,3 C 75 % 1025,5 hPa 0,0 l/m 2 min 0 min 429 W/m 25,7 km/h (4 Bft) 97,92 %
17.03.2021 12:12 7,5 C 10,0 C 6,7 C 74 % 1025,5 hPa 0,0 l/m 2 min 0 min 337 W/m 29,0 km/h (5 Bft) 95,92 %
17.03.2021 12:14 7,4 C 10,0 C 6,7 C 74 % 1025,5 hPa 0,0 l/m 2 min 0 min 365 W/m 19,3 km/h (3 Bft) 100,00 %
17.03.2021 12:16 7,4 C 10,0 C 6,7 C 74 % 1025,5 hPa 0,0 l/m 2 min 0 min 413 W/m 25,7 km/h (4 Bft) 97,87 %
17.03.2021 12:18 7,4 C 9,4 C 6,7 C 74 % 1025,5 hPa 0,0 l/m 2 min 0 min 370 W/m 41,8 km/h (6 Bft) 97,87 %
17.03.2021 12:20 7,3 C 9,4 C 6,1 C 73 % 1025,6 hPa 0,0 l/m 2 min 0 min 339 W/m 25,7 km/h (4 Bft) 96,30 %
17.03.2021 12:22 7,3 C 10,0 C 6,1 C 74 % 1025,5 hPa 0,0 l/m 2 min 0 min 348 W/m 25,7 km/h (4 Bft) 97,83 %
17.03.2021 12:24 7,3 C 10,0 C 6,7 C 74 % 1025,5 hPa 0,0 l/m 2 min 0 min 326 W/m 16,1 km/h (3 Bft) 97,87 %
17.03.2021 12:26 7,4 C 10,0 C 6,7 C 74 % 1025,5 hPa 0,0 l/m 0 min 0 min 277 W/m 22,5 km/h (4 Bft) 97,92 %
17.03.2021 12:28 7,4 C 10,6 C 6,7 C 74 % 1025,5 hPa 0,0 l/m 0 min 0 min 263 W/m 38,6 km/h (5 Bft) 97,96 %
17.03.2021 12:30 7,4 C 11,1 C 8,4 C 74 % 1025,5 hPa 0,0 l/m 0 min 0 min 230 W/m 22,5 km/h (4 Bft) 97,96 %
17.03.2021 12:32 7,5 C 13,9 C 10,0 C 74 % 1025,5 hPa 0,0 l/m 2 min 0 min 600 W/m 35,4 km/h (5 Bft) 94,29 %
17.03.2021 12:34 7,6 C 14,4 C 9,5 C 74 % 1025,4 hPa 0,0 l/m 2 min 0 min 623 W/m 25,7 km/h (4 Bft) 97,87 %
17.03.2021 12:36 7,8 C 13,9 C 8,9 C 74 % 1025,5 hPa 0,0 l/m 2 min 0 min 679 W/m 32,2 km/h (5 Bft) 98,15 %
17.03.2021 12:38 7,9 C 12,2 C 7,8 C 74 % 1025,5 hPa 0,0 l/m 2 min 0 min 387 W/m 32,2 km/h (5 Bft) 97,96 %
17.03.2021 12:40 7,9 C 11,1 C 6,7 C 73 % 1025,5 hPa 0,0 l/m 0 min 0 min 221 W/m 29,0 km/h (5 Bft) 97,96 %
17.03.2021 12:42 7,8 C 9,4 C 5,6 C 74 % 1025,6 hPa 0,0 l/m 0 min 0 min 136 W/m 41,8 km/h (6 Bft) 97,87 %
17.03.2021 12:44 7,6 C 7,8 C 5,0 C 75 % 1025,6 hPa 0,0 l/m 0 min 0 min 118 W/m 22,5 km/h (4 Bft) 97,14 %
17.03.2021 12:46 7,3 C 7,2 C 4,5 C 76 % 1025,7 hPa 0,0 l/m 0 min 2 min 119 W/m 16,1 km/h (3 Bft) 98,11 %
17.03.2021 12:48 7,0 C 6,7 C 3,9 C 78 % 1025,7 hPa 0,0 l/m 0 min 2 min 138 W/m 16,1 km/h (3 Bft) 97,96 %
17.03.2021 12:50 6,8 C 6,7 C 3,9 C 79 % 1025,7 hPa 0,0 l/m 0 min 0 min 165 W/m 19,3 km/h (3 Bft) 95,92 %
17.03.2021 12:52 6,6 C 6,7 C 3,9 C 80 % 1025,6 hPa 0,0 l/m 0 min 0 min 167 W/m 19,3 km/h (3 Bft) 97,87 %
17.03.2021 12:54 6,5 C 7,8 C 3,9 C 81 % 1025,7 hPa 0,0 l/m 0 min 0 min 173 W/m 16,1 km/h (3 Bft) 97,87 %
17.03.2021 12:56 6,5 C 11,1 C 4,5 C 81 % 1025,6 hPa 0,0 l/m 2 min 0 min 812 W/m 22,5 km/h (4 Bft) 97,83 %
17.03.2021 12:58 6,6 C 14,4 C 5,0 C 82 % 1025,7 hPa 0,0 l/m 2 min 0 min 816 W/m 16,1 km/h (3 Bft) 95,56 %
17.03.2021 13:00 6,8 C 13,3 C 5,0 C 82 % 1025,6 hPa 0,0 l/m 2 min 0 min 795 W/m 19,3 km/h (3 Bft) 97,87 %
17.03.2021 13:02 6,8 C 11,7 C 5,0 C 81 % 1025,7 hPa 0,0 l/m 0 min 0 min 152 W/m 29,0 km/h (5 Bft) 95,83 %
17.03.2021 13:04 6,9 C 12,2 C 5,0 C 80 % 1025,5 hPa 0,0 l/m 0 min 0 min 139 W/m 16,1 km/h (3 Bft) 95,74 %
17.03.2021 13:06 7,0 C 13,9 C 5,0 C 79 % 1025,5 hPa 0,0 l/m 2 min 0 min 422 W/m 19,3 km/h (3 Bft) 97,87 %
17.03.2021 13:08 7,3 C 15,6 C 5,6 C 78 % 1025,4 hPa 0,0 l/m 2 min 0 min 855 W/m 22,5 km/h (4 Bft) 100,00 %
17.03.2021 13:10 7,4 C 15,6 C 6,1 C 76 % 1025,4 hPa 0,0 l/m 2 min 0 min 619 W/m 25,7 km/h (4 Bft) 97,87 %
17.03.2021 13:12 7,5 C 13,3 C 6,1 C 75 % 1025,4 hPa 0,0 l/m 2 min 0 min 605 W/m 22,5 km/h (4 Bft) 95,74 %
17.03.2021 13:14 7,5 C 11,1 C 5,6 C 74 % 1025,5 hPa 0,0 l/m 0 min 0 min 190 W/m 32,2 km/h (5 Bft) 97,87 %
17.03.2021 13:16 7,5 C 9,4 C 5,6 C 73 % 1025,4 hPa 0,0 l/m 0 min 0 min 181 W/m 32,2 km/h (5 Bft) 91,49 %
17.03.2021 13:18 7,4 C 8,9 C 5,0 C 72 % 1025,4 hPa 0,0 l/m 0 min 0 min 189 W/m 25,7 km/h (4 Bft) 97,87 %
17.03.2021 13:20 7,4 C 8,3 C 5,0 C 72 % 1025,5 hPa 0,0 l/m 0 min 0 min 224 W/m 25,7 km/h (4 Bft) 95,65 %
17.03.2021 13:22 7,3 C 8,3 C 5,0 C 72 % 1025,5 hPa 0,0 l/m 0 min 0 min 267 W/m 29,0 km/h (5 Bft) 95,74 %
17.03.2021 13:24 7,3 C 8,9 C 5,0 C 72 % 1025,5 hPa 0,0 l/m 0 min 0 min 265 W/m 19,3 km/h (3 Bft) 97,87 %
17.03.2021 13:26 7,3 C 8,9 C 5,6 C 71 % 1025,6 hPa 0,0 l/m 2 min 0 min 301 W/m 22,5 km/h (4 Bft) 97,87 %
17.03.2021 13:28 7,3 C 8,3 C 5,0 C 71 % 1025,5 hPa 0,0 l/m 0 min 0 min 265 W/m 25,7 km/h (4 Bft) 97,87 %
17.03.2021 13:30 7,3 C 8,3 C 5,0 C 71 % 1025,5 hPa 0,0 l/m 0 min 0 min 232 W/m 19,3 km/h (3 Bft) 97,87 %
17.03.2021 13:32 7,2 C 8,9 C 5,0 C 70 % 1025,5 hPa 0,0 l/m 0 min 0 min 251 W/m 16,1 km/h (3 Bft) 95,65 %
17.03.2021 13:34 7,2 C 9,4 C 5,0 C 70 % 1025,5 hPa 0,0 l/m 0 min 0 min 281 W/m 29,0 km/h (5 Bft) 93,62 %
17.03.2021 13:36 7,1 C 10,0 C 4,5 C 69 % 1025,5 hPa 0,0 l/m 0 min 0 min 258 W/m 19,3 km/h (3 Bft) 97,87 %
17.03.2021 13:38 7,3 C 12,8 C 5,0 C 69 % 1025,5 hPa 0,0 l/m 2 min 0 min 594 W/m 32,2 km/h (5 Bft) 97,87 %
17.03.2021 13:40 7,4 C 15,6 C 5,0 C 69 % 1025,5 hPa 0,0 l/m 2 min 0 min 775 W/m 22,5 km/h (4 Bft) 97,87 %
17.03.2021 13:42 7,6 C 15,6 C 5,0 C 68 % 1025,4 hPa 0,0 l/m 2 min 0 min 786 W/m 35,4 km/h (5 Bft) 93,62 %
17.03.2021 13:44 7,8 C 16,7 C 6,1 C 68 % 1025,5 hPa 0,0 l/m 2 min 0 min 830 W/m 29,0 km/h (5 Bft) 95,65 %
17.03.2021 13:46 8,0 C 17,8 C 6,1 C 68 % 1025,5 hPa 0,0 l/m 2 min 0 min 599 W/m 22,5 km/h (4 Bft) 97,87 %
17.03.2021 13:48 8,3 C 15,6 C 6,1 C 68 % 1025,4 hPa 0,0 l/m 2 min 0 min 800 W/m 22,5 km/h (4 Bft) 97,87 %
17.03.2021 13:50 8,3 C 12,8 C 6,1 C 67 % 1025,4 hPa 0,0 l/m 0 min 0 min 229 W/m 22,5 km/h (4 Bft) 93,62 %
17.03.2021 13:52 8,3 C 14,4 C 6,1 C 66 % 1025,5 hPa 0,0 l/m 2 min 0 min 438 W/m 19,3 km/h (3 Bft) 97,87 %
17.03.2021 13:54 8,3 C 12,8 C 6,1 C 65 % 1025,4 hPa 0,0 l/m 2 min 0 min 534 W/m 25,7 km/h (4 Bft) 95,74 %
17.03.2021 13:56 8,3 C 11,1 C 5,6 C 65 % 1025,4 hPa 0,0 l/m 0 min 0 min 210 W/m 19,3 km/h (3 Bft) 97,83 %
17.03.2021 13:58 8,2 C 10,6 C 5,6 C 65 % 1025,5 hPa 0,0 l/m 0 min 0 min 229 W/m 25,7 km/h (4 Bft) 95,74 %
17.03.2021 14:00 8,0 C 10,0 C 5,6 C 65 % 1025,4 hPa 0,0 l/m 0 min 0 min 241 W/m 16,1 km/h (3 Bft) 95,74 %
17.03.2021 14:02 8,0 C 10,0 C 5,6 C 65 % 1025,4 hPa 0,0 l/m 0 min 0 min 262 W/m 16,1 km/h (3 Bft) 95,74 %
17.03.2021 14:04 8,0 C 11,1 C 5,6 C 66 % 1025,5 hPa 0,0 l/m 2 min 0 min 431 W/m 16,1 km/h (3 Bft) 95,74 %
17.03.2021 14:06 8,0 C 11,1 C 5,6 C 65 % 1025,5 hPa 0,0 l/m 2 min 0 min 478 W/m 22,5 km/h (4 Bft) 95,74 %
17.03.2021 14:08 8,0 C 12,8 C 5,6 C 65 % 1025,4 hPa 0,0 l/m 2 min 0 min 439 W/m 16,1 km/h (3 Bft) 95,65 %
17.03.2021 14:10 8,0 C 12,2 C 5,6 C 65 % 1025,4 hPa 0,0 l/m 2 min 0 min 316 W/m 16,1 km/h (3 Bft) 97,87 %
17.03.2021 14:12 8,0 C 11,1 C 5,6 C 64 % 1025,5 hPa 0,0 l/m 0 min 0 min 212 W/m 25,7 km/h (4 Bft) 93,62 %
17.03.2021 14:14 7,9 C 9,4 C 5,0 C 64 % 1025,5 hPa 0,0 l/m 0 min 0 min 186 W/m 35,4 km/h (5 Bft) 97,87 %
17.03.2021 14:16 7,9 C 8,9 C 5,0 C 64 % 1025,5 hPa 0,0 l/m 0 min 0 min 224 W/m 29,0 km/h (5 Bft) 95,74 %
17.03.2021 14:18 7,8 C 8,9 C 5,0 C 64 % 1025,4 hPa 0,0 l/m 0 min 0 min 260 W/m 19,3 km/h (3 Bft) 95,74 %
17.03.2021 14:20 7,8 C 8,9 C 5,0 C 65 % 1025,5 hPa 0,0 l/m 0 min 0 min 258 W/m 19,3 km/h (3 Bft) 95,65 %
17.03.2021 14:22 7,7 C 8,9 C 5,0 C 66 % 1025,4 hPa 0,0 l/m 0 min 0 min 260 W/m 22,5 km/h (4 Bft) 95,74 %
17.03.2021 14:24 7,7 C 10,0 C 5,6 C 66 % 1025,4 hPa 0,0 l/m 2 min 0 min 316 W/m 12,9 km/h (3 Bft) 97,87 %
17.03.2021 14:26 7,7 C 10,0 C 5,6 C 67 % 1025,4 hPa 0,0 l/m 2 min 0 min 280 W/m 22,5 km/h (4 Bft) 97,87 %
17.03.2021 14:28 7,8 C 10,0 C 5,6 C 66 % 1025,5 hPa 0,0 l/m 2 min 0 min 300 W/m 22,5 km/h (4 Bft) 97,87 %
17.03.2021 14:30 7,8 C 9,4 C 5,6 C 67 % 1025,5 hPa 0,0 l/m 0 min 0 min 264 W/m 16,1 km/h (3 Bft) 97,87 %
17.03.2021 14:32 7,8 C 9,4 C 5,6 C 66 % 1025,5 hPa 0,0 l/m 0 min 0 min 225 W/m 35,4 km/h (5 Bft) 97,83 %
17.03.2021 14:34 7,8 C 8,9 C 5,0 C 65 % 1025,4 hPa 0,0 l/m 0 min 0 min 187 W/m 29,0 km/h (5 Bft) 97,87 %
17.03.2021 14:36 7,7 C 8,3 C 5,0 C 66 % 1025,4 hPa 0,0 l/m 0 min 0 min 189 W/m 19,3 km/h (3 Bft) 97,87 %
17.03.2021 14:38 7,6 C 9,4 C 5,0 C 67 % 1025,4 hPa 0,0 l/m 0 min 0 min 209 W/m 22,5 km/h (4 Bft) 97,87 %
17.03.2021 14:40 7,7 C 12,8 C 5,6 C 67 % 1025,5 hPa 0,0 l/m 0 min 0 min 214 W/m 19,3 km/h (3 Bft) 95,74 %
17.03.2021 14:42 7,9 C 15,0 C 6,1 C 68 % 1025,5 hPa 0,0 l/m 2 min 0 min 539 W/m 16,1 km/h (3 Bft) 95,74 %
17.03.2021 14:44 8,0 C 14,4 C 6,1 C 68 % 1025,4 hPa 0,0 l/m 2 min 0 min 536 W/m 9,7 km/h (2 Bft) 95,65 %
17.03.2021 14:46 8,1 C 12,2 C 6,1 C 67 % 1025,5 hPa 0,0 l/m 2 min 0 min 324 W/m 16,1 km/h (3 Bft) 97,87 %
17.03.2021 14:48 8,1 C 11,1 C 5,6 C 66 % 1025,4 hPa 0,0 l/m 0 min 0 min 215 W/m 16,1 km/h (3 Bft) 97,87 %
17.03.2021 14:50 8,0 C 10,0 C 5,6 C 66 % 1025,4 hPa 0,0 l/m 0 min 0 min 192 W/m 16,1 km/h (3 Bft) 97,87 %
17.03.2021 14:52 8,0 C 9,4 C 5,6 C 66 % 1025,4 hPa 0,0 l/m 0 min 0 min 188 W/m 16,1 km/h (3 Bft) 97,87 %
17.03.2021 14:54 8,0 C 8,9 C 5,0 C 66 % 1025,4 hPa 0,0 l/m 0 min 0 min 170 W/m 16,1 km/h (3 Bft) 100,00 %
17.03.2021 14:56 7,9 C 8,3 C 5,0 C 66 % 1025,4 hPa 0,0 l/m 0 min 0 min 162 W/m 19,3 km/h (3 Bft) 100,00 %
17.03.2021 14:58 7,9 C 8,3 C 5,0 C 67 % 1025,5 hPa 0,0 l/m 0 min 0 min 182 W/m 16,1 km/h (3 Bft) 100,00 %
17.03.2021 15:00 7,9 C 8,3 C 5,0 C 67 % 1025,5 hPa 0,0 l/m 0 min 0 min 216 W/m 22,5 km/h (4 Bft) 100,00 %
17.03.2021 15:02 7,8 C 8,3 C 5,0 C 67 % 1025,4 hPa 0,0 l/m 0 min 0 min 209 W/m 19,3 km/h (3 Bft) 97,92 %
17.03.2021 15:04 7,8 C 8,3 C 5,0 C 67 % 1025,4 hPa 0,0 l/m 0 min 0 min 214 W/m 22,5 km/h (4 Bft) 100,00 %
17.03.2021 15:06 7,8 C 8,3 C 5,0 C 67 % 1025,4 hPa 0,0 l/m 0 min 0 min 226 W/m 16,1 km/h (3 Bft) 100,00 %
17.03.2021 15:08 7,7 C 8,3 C 5,6 C 68 % 1025,4 hPa 0,0 l/m 0 min 0 min 236 W/m 22,5 km/h (4 Bft) 100,00 %
17.03.2021 15:10 7,8 C 8,9 C 5,6 C 68 % 1025,3 hPa 0,0 l/m 2 min 0 min 254 W/m 22,5 km/h (4 Bft) 100,00 %
17.03.2021 15:12 7,8 C 9,4 C 5,6 C 68 % 1025,3 hPa 0,0 l/m 2 min 0 min 260 W/m 22,5 km/h (4 Bft) 100,00 %
17.03.2021 15:14 7,8 C 10,0 C 5,6 C 69 % 1025,3 hPa 0,0 l/m 2 min 0 min 292 W/m 12,9 km/h (3 Bft) 100,00 %
17.03.2021 15:16 7,9 C 10,0 C 5,6 C 69 % 1025,3 hPa 0,0 l/m 2 min 0 min 260 W/m 12,9 km/h (3 Bft) 100,00 %
17.03.2021 15:18 7,9 C 11,1 C 5,6 C 69 % 1025,2 hPa 0,0 l/m 2 min 0 min 266 W/m 9,7 km/h (2 Bft) 100,00 %
17.03.2021 15:20 8,0 C 10,6 C 5,6 C 69 % 1025,2 hPa 0,0 l/m 0 min 0 min 222 W/m 16,1 km/h (3 Bft) 100,00 %
17.03.2021 15:22 8,0 C 10,6 C 5,6 C 69 % 1025,2 hPa 0,0 l/m 0 min 0 min 182 W/m 6,4 km/h (2 Bft) 100,00 %
17.03.2021 15:24 8,0 C 10,0 C 5,6 C 69 % 1025,2 hPa 0,0 l/m 0 min 0 min 171 W/m 6,4 km/h (2 Bft) 100,00 %
17.03.2021 15:26 8,0 C 10,0 C 5,6 C 69 % 1025,3 hPa 0,0 l/m 0 min 0 min 122 W/m 16,1 km/h (3 Bft) 100,00 %
17.03.2021 15:28 8,0 C 9,4 C 5,0 C 69 % 1025,3 hPa 0,0 l/m 0 min 0 min 118 W/m 16,1 km/h (3 Bft) 100,00 %
17.03.2021 15:30 8,0 C 8,9 C 5,0 C 69 % 1025,3 hPa 0,0 l/m 0 min 0 min 130 W/m 19,3 km/h (3 Bft) 100,00 %
17.03.2021 15:32 7,9 C 10,6 C 5,0 C 69 % 1025,4 hPa 0,0 l/m 0 min 0 min 148 W/m 12,9 km/h (3 Bft) 100,00 %
17.03.2021 15:34 8,0 C 13,3 C 5,6 C 70 % 1025,4 hPa 0,0 l/m 2 min 0 min 570 W/m 6,4 km/h (2 Bft) 97,87 %
17.03.2021 15:36 8,1 C 13,9 C 5,6 C 70 % 1025,4 hPa 0,0 l/m 2 min 0 min 617 W/m 12,9 km/h (3 Bft) 95,74 %
17.03.2021 15:38 8,2 C 15,0 C 6,1 C 70 % 1025,4 hPa 0,0 l/m 2 min 0 min 445 W/m 9,7 km/h (2 Bft) 82,98 %
17.03.2021 15:40 8,3 C 15,0 C 6,1 C 69 % 1025,4 hPa 0,0 l/m 2 min 0 min 361 W/m 16,1 km/h (3 Bft) 93,62 %
17.03.2021 15:42 8,5 C 14,4 C 6,7 C 69 % 1025,4 hPa 0,0 l/m 2 min 0 min 360 W/m 9,7 km/h (2 Bft) 93,62 %
17.03.2021 15:44 8,5 C 12,8 C 6,1 C 68 % 1025,3 hPa 0,0 l/m 2 min 0 min 317 W/m 19,3 km/h (3 Bft) 97,83 %
17.03.2021 15:46 8,6 C 11,7 C 6,1 C 68 % 1025,4 hPa 0,0 l/m 0 min 0 min 193 W/m 19,3 km/h (3 Bft) 97,87 %
17.03.2021 15:48 8,5 C 10,6 C 6,1 C 68 % 1025,4 hPa 0,0 l/m 0 min 0 min 144 W/m 9,7 km/h (2 Bft) 95,74 %
17.03.2021 15:50 8,5 C 10,0 C 5,6 C 67 % 1025,4 hPa 0,0 l/m 0 min 0 min 95 W/m 16,1 km/h (3 Bft) 97,87 %
17.03.2021 15:52 8,5 C 8,9 C 5,6 C 67 % 1025,4 hPa 0,0 l/m 0 min 0 min 73 W/m 9,7 km/h (2 Bft) 95,74 %
17.03.2021 15:54 8,4 C 8,3 C 5,0 C 67 % 1025,3 hPa 0,0 l/m 0 min 0 min 60 W/m 9,7 km/h (2 Bft) 97,87 %
17.03.2021 15:56 8,2 C 7,8 C 5,0 C 67 % 1025,3 hPa 0,0 l/m 0 min 0 min 57 W/m 16,1 km/h (3 Bft) 97,83 %
17.03.2021 15:58 8,0 C 7,8 C 5,0 C 68 % 1025,4 hPa 0,0 l/m 0 min 0 min 65 W/m 16,1 km/h (3 Bft) 97,87 %
17.03.2021 16:00 7,9 C 7,2 C 4,5 C 68 % 1025,4 hPa 0,0 l/m 0 min 0 min 67 W/m 19,3 km/h (3 Bft) 97,87 %
17.03.2021 16:02 7,9 C 7,2 C 4,5 C 69 % 1025,4 hPa 0,0 l/m 0 min 0 min 53 W/m 16,1 km/h (3 Bft) 98,21 %
17.03.2021 16:04 7,8 C 7,2 C 4,5 C 69 % 1025,5 hPa 0,0 l/m 0 min 0 min 49 W/m 22,5 km/h (4 Bft) 97,87 %
17.03.2021 16:06 7,6 C 7,2 C 4,5 C 70 % 1025,4 hPa 0,0 l/m 0 min 0 min 50 W/m 16,1 km/h (3 Bft) 95,65 %
17.03.2021 16:08 7,5 C 7,2 C 4,5 C 70 % 1025,4 hPa 0,0 l/m 0 min 0 min 60 W/m 12,9 km/h (3 Bft) 97,87 %
17.03.2021 16:10 7,5 C 7,2 C 4,5 C 70 % 1025,4 hPa 0,0 l/m 0 min 0 min 76 W/m 12,9 km/h (3 Bft) 97,87 %
17.03.2021 16:12 7,5 C 7,2 C 4,5 C 70 % 1025,4 hPa 0,0 l/m 0 min 0 min 91 W/m 12,9 km/h (3 Bft) 97,87 %
17.03.2021 16:14 7,4 C 7,2 C 4,5 C 70 % 1025,4 hPa 0,0 l/m 0 min 0 min 107 W/m 19,3 km/h (3 Bft) 97,87 %
17.03.2021 16:16 7,4 C 7,2 C 4,5 C 71 % 1025,4 hPa 0,0 l/m 0 min 0 min 110 W/m 19,3 km/h (3 Bft) 95,74 %
17.03.2021 16:18 7,4 C 8,3 C 4,5 C 71 % 1025,4 hPa 0,0 l/m 0 min 0 min 116 W/m 12,9 km/h (3 Bft) 92,11 %
17.03.2021 16:20 7,4 C 10,6 C 4,5 C 71 % 1025,4 hPa 0,0 l/m 2 min 0 min 251 W/m 12,9 km/h (3 Bft) 95,65 %
17.03.2021 16:22 7,5 C 10,6 C 4,5 C 72 % 1025,4 hPa 0,0 l/m 2 min 0 min 260 W/m 12,9 km/h (3 Bft) 95,74 %
17.03.2021 16:24 7,5 C 10,6 C 5,0 C 72 % 1025,4 hPa 0,0 l/m 2 min 0 min 171 W/m 16,1 km/h (3 Bft) 95,74 %
17.03.2021 16:26 7,5 C 10,0 C 5,0 C 72 % 1025,4 hPa 0,0 l/m 0 min 0 min 141 W/m 9,7 km/h (2 Bft) 97,87 %
17.03.2021 16:28 7,6 C 11,7 C 5,0 C 73 % 1025,4 hPa 0,0 l/m 2 min 0 min 193 W/m 9,7 km/h (2 Bft) 95,74 %
17.03.2021 16:30 7,6 C 13,9 C 5,0 C 73 % 1025,4 hPa 0,0 l/m 2 min 0 min 375 W/m 6,4 km/h (2 Bft) 95,74 %
17.03.2021 16:32 7,8 C 15,0 C 5,0 C 73 % 1025,4 hPa 0,0 l/m 2 min 0 min 352 W/m 16,1 km/h (3 Bft) 97,83 %
17.03.2021 16:34 7,8 C 15,6 C 5,0 C 74 % 1025,4 hPa 0,0 l/m 2 min 0 min 374 W/m 19,3 km/h (3 Bft) 97,87 %
17.03.2021 16:36 7,9 C 15,0 C 5,0 C 73 % 1025,4 hPa 0,0 l/m 2 min 0 min 378 W/m 19,3 km/h (3 Bft) 97,87 %
17.03.2021 16:38 8,0 C 13,9 C 5,0 C 72 % 1025,4 hPa 0,0 l/m 2 min 0 min 369 W/m 16,1 km/h (3 Bft) 91,49 %
17.03.2021 16:40 8,0 C 13,9 C 5,0 C 72 % 1025,4 hPa 0,0 l/m 2 min 0 min 366 W/m 12,9 km/h (3 Bft) 97,87 %
17.03.2021 16:42 8,0 C 14,4 C 5,0 C 72 % 1025,4 hPa 0,0 l/m 2 min 0 min 326 W/m 9,7 km/h (2 Bft) 95,74 %
17.03.2021 16:44 8,1 C 13,3 C 5,0 C 72 % 1025,5 hPa 0,0 l/m 2 min 0 min 271 W/m 6,4 km/h (2 Bft) 97,83 %
17.03.2021 16:46 8,1 C 12,2 C 5,0 C 72 % 1025,5 hPa 0,0 l/m 2 min 0 min 243 W/m 9,7 km/h (2 Bft) 97,87 %
17.03.2021 16:48 8,1 C 10,6 C 5,0 C 70 % 1025,4 hPa 0,0 l/m 2 min 0 min 202 W/m 22,5 km/h (4 Bft) 93,62 %
17.03.2021 16:50 8,1 C 9,4 C 5,0 C 69 % 1025,4 hPa 0,0 l/m 0 min 0 min 119 W/m 29,0 km/h (5 Bft) 97,87 %
17.03.2021 16:52 8,1 C 8,9 C 5,0 C 69 % 1025,5 hPa 0,0 l/m 0 min 0 min 104 W/m 22,5 km/h (4 Bft) 97,87 %
17.03.2021 16:54 8,0 C 8,3 C 5,0 C 69 % 1025,4 hPa 0,0 l/m 0 min 0 min 84 W/m 25,7 km/h (4 Bft) 97,87 %
17.03.2021 16:56 7,9 C 8,3 C 5,0 C 69 % 1025,4 hPa 0,0 l/m 0 min 0 min 87 W/m 12,9 km/h (3 Bft) 95,65 %
17.03.2021 16:58 7,9 C 7,8 C 5,0 C 70 % 1025,5 hPa 0,0 l/m 0 min 0 min 103 W/m 9,7 km/h (2 Bft) 95,74 %
17.03.2021 17:00 7,9 C 7,8 C 5,0 C 70 % 1025,5 hPa 0,0 l/m 0 min 0 min 115 W/m 12,9 km/h (3 Bft) 95,74 %
17.03.2021 17:02 7,9 C 7,8 C 5,0 C 70 % 1025,5 hPa 0,0 l/m 0 min 0 min 118 W/m 12,9 km/h (3 Bft) 97,87 %
17.03.2021 17:04 7,9 C 7,8 C 5,0 C 71 % 1025,5 hPa 0,0 l/m 0 min 0 min 104 W/m 16,1 km/h (3 Bft) 97,87 %
17.03.2021 17:06 7,8 C 7,8 C 5,0 C 71 % 1025,5 hPa 0,0 l/m 0 min 0 min 95 W/m 29,0 km/h (5 Bft) 95,65 %
17.03.2021 17:08 7,8 C 7,8 C 4,5 C 71 % 1025,5 hPa 0,0 l/m 0 min 0 min 95 W/m 25,7 km/h (4 Bft) 100,00 %
17.03.2021 17:10 7,8 C 7,8 C 4,5 C 71 % 1025,5 hPa 0,0 l/m 0 min 0 min 89 W/m 22,5 km/h (4 Bft) 97,87 %
17.03.2021 17:12 7,7 C 7,8 C 4,5 C 72 % 1025,5 hPa 0,0 l/m 0 min 0 min 81 W/m 19,3 km/h (3 Bft) 97,87 %
17.03.2021 17:14 7,7 C 7,8 C 4,5 C 72 % 1025,5 hPa 0,0 l/m 0 min 0 min 79 W/m 12,9 km/h (3 Bft) 97,87 %
17.03.2021 17:16 7,6 C 7,8 C 4,5 C 72 % 1025,5 hPa 0,0 l/m 0 min 0 min 76 W/m 25,7 km/h (4 Bft) 97,87 %
17.03.2021 17:18 7,6 C 7,2 C 4,5 C 72 % 1025,6 hPa 0,0 l/m 0 min 0 min 70 W/m 22,5 km/h (4 Bft) 97,87 %
17.03.2021 17:20 7,5 C 7,2 C 4,5 C 72 % 1025,5 hPa 0,0 l/m 0 min 0 min 69 W/m 16,1 km/h (3 Bft) 97,83 %
17.03.2021 17:22 7,5 C 7,2 C 4,5 C 71 % 1025,6 hPa 0,0 l/m 0 min 0 min 62 W/m 16,1 km/h (3 Bft) 97,87 %
17.03.2021 17:24 7,4 C 7,2 C 3,9 C 71 % 1025,6 hPa 0,0 l/m 0 min 0 min 54 W/m 19,3 km/h (3 Bft) 95,74 %
17.03.2021 17:26 7,4 C 6,7 C 3,9 C 71 % 1025,7 hPa 0,0 l/m 0 min 0 min 50 W/m 25,7 km/h (4 Bft) 97,87 %
17.03.2021 17:28 7,3 C 6,7 C 3,9 C 71 % 1025,7 hPa 0,0 l/m 0 min 0 min 48 W/m 32,2 km/h (5 Bft) 97,87 %
17.03.2021 17:30 7,3 C 6,7 C 3,9 C 71 % 1025,8 hPa 0,0 l/m 0 min 0 min 47 W/m 19,3 km/h (3 Bft) 97,87 %
17.03.2021 17:32 7,3 C 6,7 C 3,9 C 71 % 1025,8 hPa 0,0 l/m 0 min 0 min 46 W/m 16,1 km/h (3 Bft) 97,83 %
17.03.2021 17:34 7,2 C 6,7 C 3,9 C 71 % 1025,8 hPa 0,0 l/m 0 min 0 min 42 W/m 16,1 km/h (3 Bft) 97,87 %
17.03.2021 17:36 7,1 C 6,7 C 3,9 C 71 % 1025,7 hPa 0,0 l/m 0 min 0 min 38 W/m 25,7 km/h (4 Bft) 93,62 %
17.03.2021 17:38 7,1 C 6,7 C 3,9 C 70 % 1025,8 hPa 0,0 l/m 0 min 0 min 35 W/m 22,5 km/h (4 Bft) 97,87 %
17.03.2021 17:40 7,0 C 6,7 C 3,9 C 70 % 1025,8 hPa 0,0 l/m 0 min 0 min 34 W/m 16,1 km/h (3 Bft) 97,87 %
17.03.2021 17:42 7,0 C 6,7 C 3,4 C 70 % 1025,8 hPa 0,0 l/m 0 min 0 min 32 W/m 12,9 km/h (3 Bft) 97,87 %
17.03.2021 17:44 6,9 C 6,1 C 3,4 C 70 % 1025,8 hPa 0,0 l/m 0 min 0 min 32 W/m 16,1 km/h (3 Bft) 97,83 %
17.03.2021 17:46 6,9 C 6,1 C 3,4 C 69 % 1025,8 hPa 0,0 l/m 0 min 0 min 34 W/m 12,9 km/h (3 Bft) 97,87 %
17.03.2021 17:48 6,8 C 6,1 C 3,4 C 69 % 1025,9 hPa 0,0 l/m 0 min 0 min 39 W/m 19,3 km/h (3 Bft) 97,87 %
17.03.2021 17:50 6,8 C 6,1 C 3,4 C 69 % 1025,9 hPa 0,0 l/m 0 min 0 min 40 W/m 19,3 km/h (3 Bft) 97,87 %
17.03.2021 17:52 6,8 C 6,1 C 3,4 C 69 % 1025,9 hPa 0,0 l/m 0 min 0 min 36 W/m 19,3 km/h (3 Bft) 100,00 %
17.03.2021 17:54 6,7 C 6,1 C 3,4 C 69 % 1025,9 hPa 0,0 l/m 0 min 0 min 28 W/m 12,9 km/h (3 Bft) 100,00 %
17.03.2021 17:56 6,7 C 6,1 C 3,4 C 69 % 1025,9 hPa 0,0 l/m 0 min 0 min 24 W/m 16,1 km/h (3 Bft) 100,00 %
17.03.2021 17:58 6,6 C 6,1 C 3,4 C 69 % 1025,9 hPa 0,0 l/m 0 min 0 min 23 W/m 16,1 km/h (3 Bft) 100,00 %
17.03.2021 18:00 6,6 C 6,1 C 3,4 C 69 % 1026,0 hPa 0,0 l/m 0 min 0 min 26 W/m 19,3 km/h (3 Bft) 100,00 %
17.03.2021 18:02 6,6 C 6,1 C 3,4 C 69 % 1026,0 hPa 0,0 l/m 0 min 0 min 30 W/m 16,1 km/h (3 Bft) 100,00 %
17.03.2021 18:04 6,5 C 6,1 C 3,4 C 69 % 1026,0 hPa 0,0 l/m 0 min 0 min 30 W/m 12,9 km/h (3 Bft) 100,00 %
17.03.2021 18:08 6,5 C 6,1 C 3,4 C 69 % 1026,1 hPa 0,0 l/m 0 min 0 min 32 W/m 22,5 km/h (4 Bft) 98,92 %
17.03.2021 18:10 6,5 C 6,1 C 3,4 C 69 % 1026,1 hPa 0,0 l/m 0 min 0 min 29 W/m 12,9 km/h (3 Bft) 100,00 %
17.03.2021 18:12 6,5 C 5,6 C 3,4 C 69 % 1026,1 hPa 0,0 l/m 0 min 0 min 22 W/m 9,7 km/h (2 Bft) 100,00 %
17.03.2021 18:14 6,5 C 5,6 C 3,4 C 70 % 1026,1 hPa 0,0 l/m 0 min 0 min 19 W/m 9,7 km/h (2 Bft) 100,00 %
17.03.2021 18:16 6,4 C 5,6 C 2,8 C 69 % 1026,1 hPa 0,0 l/m 0 min 0 min 16 W/m 16,1 km/h (3 Bft) 100,00 %
17.03.2021 18:18 6,4 C 5,6 C 2,8 C 69 % 1026,1 hPa 0,0 l/m 0 min 0 min 15 W/m 16,1 km/h (3 Bft) 97,87 %
17.03.2021 18:20 6,4 C 5,6 C 2,8 C 70 % 1026,2 hPa 0,0 l/m 0 min 0 min 14 W/m 16,1 km/h (3 Bft) 97,83 %
17.03.2021 18:22 6,3 C 5,6 C 2,8 C 70 % 1026,2 hPa 0,0 l/m 0 min 0 min 12 W/m 6,4 km/h (2 Bft) 100,00 %
17.03.2021 18:24 6,3 C 5,6 C 2,8 C 70 % 1026,2 hPa 0,0 l/m 0 min 0 min 12 W/m 16,1 km/h (3 Bft) 100,00 %
17.03.2021 18:26 6,3 C 5,6 C 2,8 C 70 % 1026,1 hPa 0,0 l/m 0 min 0 min 10 W/m 12,9 km/h (3 Bft) 100,00 %
17.03.2021 18:28 6,2 C 5,0 C 2,8 C 70 % 1026,2 hPa 0,0 l/m 0 min 0 min 9 W/m 16,1 km/h (3 Bft) 100,00 %
17.03.2021 18:30 6,1 C 5,0 C 2,8 C 69 % 1026,3 hPa 0,0 l/m 0 min 0 min 8 W/m 12,9 km/h (3 Bft) 100,00 %
17.03.2021 18:32 6,1 C 5,0 C 2,8 C 70 % 1026,3 hPa 0,0 l/m 0 min 0 min 7 W/m 16,1 km/h (3 Bft) 100,00 %
17.03.2021 18:34 6,0 C 5,0 C 2,8 C 70 % 1026,3 hPa 0,0 l/m 0 min 0 min 7 W/m 9,7 km/h (2 Bft) 100,00 %
17.03.2021 18:36 6,0 C 5,0 C 2,3 C 70 % 1026,3 hPa 0,0 l/m 0 min 0 min 7 W/m 12,9 km/h (3 Bft) 100,00 %
17.03.2021 18:38 6,0 C 5,0 C 2,3 C 70 % 1026,4 hPa 0,0 l/m 0 min 0 min 5 W/m 12,9 km/h (3 Bft) 100,00 %
17.03.2021 18:40 6,0 C 5,0 C 2,3 C 71 % 1026,4 hPa 0,0 l/m 0 min 0 min 5 W/m 12,9 km/h (3 Bft) 100,00 %
17.03.2021 18:42 6,0 C 5,0 C 2,3 C 71 % 1026,4 hPa 0,0 l/m 0 min 0 min 4 W/m 9,7 km/h (2 Bft) 100,00 %
17.03.2021 18:44 5,9 C 5,0 C 2,3 C 71 % 1026,5 hPa 0,0 l/m 0 min 0 min 0 W/m 6,4 km/h (2 Bft) 100,00 %
17.03.2021 18:46 5,9 C 5,0 C 2,3 C 71 % 1026,5 hPa 0,0 l/m 0 min 0 min 0 W/m 3,2 km/h (1 Bft) 97,87 %
17.03.2021 18:48 5,8 C 4,4 C 2,3 C 72 % 1026,4 hPa 0,0 l/m 0 min 0 min 0 W/m 9,7 km/h (2 Bft) 100,00 %
17.03.2021 18:50 5,8 C 4,4 C 2,3 C 72 % 1026,4 hPa 0,0 l/m 0 min 0 min 0 W/m 3,2 km/h (1 Bft) 97,87 %
17.03.2021 18:52 5,8 C 4,4 C 2,3 C 72 % 1026,4 hPa 0,0 l/m 0 min 0 min 0 W/m 3,2 km/h (1 Bft) 95,74 %
17.03.2021 18:54 5,7 C 4,4 C 2,3 C 72 % 1026,3 hPa 0,0 l/m 0 min 0 min 0 W/m 3,2 km/h (1 Bft) 100,00 %
17.03.2021 18:56 5,7 C 4,4 C 1,7 C 72 % 1026,4 hPa 0,0 l/m 0 min 0 min 0 W/m 6,4 km/h (2 Bft) 100,00 %
17.03.2021 18:58 5,7 C 4,4 C 1,7 C 72 % 1026,4 hPa 0,0 l/m 0 min 0 min 0 W/m 9,7 km/h (2 Bft) 97,87 %
17.03.2021 19:00 5,6 C 4,4 C 1,7 C 72 % 1026,4 hPa 0,0 l/m 0 min 0 min 0 W/m 6,4 km/h (2 Bft) 97,87 %
17.03.2021 19:02 5,6 C 4,4 C 1,7 C 73 % 1026,4 hPa 0,0 l/m 0 min 0 min 0 W/m 3,2 km/h (1 Bft) 95,74 %
17.03.2021 19:04 5,6 C 4,4 C 1,7 C 73 % 1026,5 hPa 0,0 l/m 0 min 0 min 0 W/m 6,4 km/h (2 Bft) 97,92 %
17.03.2021 19:06 5,5 C 4,4 C 1,7 C 73 % 1026,5 hPa 0,0 l/m 0 min 0 min 0 W/m 3,2 km/h (1 Bft) 96,15 %
17.03.2021 19:08 5,5 C 4,4 C 1,7 C 74 % 1026,5 hPa 0,0 l/m 0 min 0 min 0 W/m 9,7 km/h (2 Bft) 97,87 %
17.03.2021 19:10 5,4 C 3,9 C 1,7 C 74 % 1026,5 hPa 0,0 l/m 0 min 0 min 0 W/m 16,1 km/h (3 Bft) 97,87 %
17.03.2021 19:12 5,4 C 3,9 C 1,7 C 74 % 1026,5 hPa 0,0 l/m 0 min 0 min 0 W/m 12,9 km/h (3 Bft) 91,49 %
17.03.2021 19:14 5,4 C 3,9 C 1,7 C 74 % 1026,5 hPa 0,0 l/m 0 min 0 min 0 W/m 9,7 km/h (2 Bft) 93,62 %
17.03.2021 19:16 5,3 C 3,9 C 1,7 C 74 % 1026,4 hPa 0,0 l/m 0 min 0 min 0 W/m 6,4 km/h (2 Bft) 97,83 %
17.03.2021 19:18 5,3 C 3,9 C 1,7 C 74 % 1026,4 hPa 0,0 l/m 0 min 0 min 0 W/m 3,2 km/h (1 Bft) 97,87 %
17.03.2021 19:20 5,3 C 3,9 C 1,7 C 74 % 1026,3 hPa 0,0 l/m 0 min 0 min 0 W/m 3,2 km/h (1 Bft) 97,87 %
17.03.2021 19:22 5,2 C 3,9 C 1,1 C 74 % 1026,1 hPa 0,0 l/m 0 min 0 min 0 W/m 0,0 km/h (0 Bft) 97,87 %
17.03.2021 19:24 5,2 C 3,9 C 1,1 C 75 % 1026,2 hPa 0,0 l/m 0 min 0 min 0 W/m 3,2 km/h (1 Bft) 95,74 %
17.03.2021 19:26 5,1 C 3,3 C 1,1 C 75 % 1026,2 hPa 0,0 l/m 0 min 0 min 0 W/m 3,2 km/h (1 Bft) 93,62 %
17.03.2021 19:28 5,1 C 3,3 C 1,1 C 75 % 1026,1 hPa 0,0 l/m 0 min 0 min 0 W/m 0,0 km/h (0 Bft) 95,65 %
17.03.2021 19:30 5,1 C 3,3 C 1,1 C 75 % 1026,0 hPa 0,0 l/m 0 min 0 min 0 W/m 0,0 km/h (0 Bft) 93,62 %
17.03.2021 19:32 5,0 C 3,3 C 1,1 C 75 % 1025,9 hPa 0,0 l/m 0 min 0 min 0 W/m 0,0 km/h (0 Bft) 91,67 %
17.03.2021 19:34 5,0 C 3,3 C 0,6 C 75 % 1026,0 hPa 0,0 l/m 0 min 0 min 0 W/m 3,2 km/h (1 Bft) 93,62 %
17.03.2021 19:36 5,0 C 3,3 C 0,6 C 75 % 1026,0 hPa 0,0 l/m 0 min 0 min 0 W/m 3,2 km/h (1 Bft) 93,62 %
17.03.2021 19:38 4,9 C 3,3 C 0,6 C 75 % 1026,0 hPa 0,0 l/m 0 min 0 min 0 W/m 3,2 km/h (1 Bft) 89,36 %
17.03.2021 19:40 4,9 C 3,3 C 0,6 C 75 % 1026,0 hPa 0,0 l/m 0 min 0 min 0 W/m 0,0 km/h (0 Bft) 91,30 %
17.03.2021 19:42 4,9 C 3,3 C 0,6 C 75 % 1026,0 hPa 0,0 l/m 0 min 0 min 0 W/m 0,0 km/h (0 Bft) 93,62 %
17.03.2021 19:44 4,8 C 3,3 C 0,6 C 75 % 1026,1 hPa 0,0 l/m 0 min 0 min 0 W/m 0,0 km/h (0 Bft) 91,49 %
17.03.2021 19:46 4,8 C 2,8 C 0,6 C 75 % 1026,0 hPa 0,0 l/m 0 min 0 min 0 W/m 3,2 km/h (1 Bft) 93,62 %
17.03.2021 19:48 4,7 C 2,8 C 0,6 C 75 % 1026,0 hPa 0,0 l/m 0 min 0 min 0 W/m 3,2 km/h (1 Bft) 91,49 %
17.03.2021 19:50 4,6 C 2,8 C 0,6 C 75 % 1026,1 hPa 0,0 l/m 0 min 0 min 0 W/m 3,2 km/h (1 Bft) 93,62 %
17.03.2021 19:52 4,6 C 2,8 C 0,6 C 75 % 1026,1 hPa 0,0 l/m 0 min 0 min 0 W/m 0,0 km/h (0 Bft) 93,48 %
17.03.2021 19:54 4,5 C 2,8 C 0,6 C 75 % 1026,2 hPa 0,0 l/m 0 min 0 min 0 W/m 3,2 km/h (1 Bft) 52,17 %
17.03.2021 19:56 4,5 C 2,8 C 0,6 C 76 % 1026,2 hPa 0,0 l/m 0 min 0 min 0 W/m 3,2 km/h (1 Bft) 91,49 %
17.03.2021 19:58 4,5 C 2,8 C 0,6 C 76 % 1026,2 hPa 0,0 l/m 0 min 0 min 0 W/m 3,2 km/h (1 Bft) 95,74 %
17.03.2021 20:00 4,4 C 2,8 C 0,6 C 76 % 1026,2 hPa 0,0 l/m 0 min 0 min 0 W/m 9,7 km/h (2 Bft) 95,74 %
17.03.2021 20:02 4,4 C 2,8 C 0,6 C 76 % 1026,2 hPa 0,0 l/m 0 min 0 min 0 W/m 3,2 km/h (1 Bft) 95,83 %
17.03.2021 20:07 4,3 C 3,3 C 0,6 C 77 % 1026,4 hPa 0,0 l/m 0 min 0 min 0 W/m 6,4 km/h (2 Bft) 96,49 %
17.03.2021 20:08 4,3 C 3,3 C 0,6 C 77 % 1026,4 hPa 0,0 l/m 0 min 0 min 0 W/m 3,2 km/h (1 Bft) 95,65 %
17.03.2021 20:10 4,3 C 3,3 C 0,6 C 77 % 1026,4 hPa 0,0 l/m 0 min 0 min 0 W/m 6,4 km/h (2 Bft) 93,62 %
17.03.2021 20:12 4,3 C 3,3 C 0,6 C 78 % 1026,5 hPa 0,0 l/m 0 min 0 min 0 W/m 0,0 km/h (0 Bft) 95,74 %
17.03.2021 20:14 4,3 C 3,3 C 0,6 C 78 % 1026,6 hPa 0,0 l/m 0 min 0 min 0 W/m 6,4 km/h (2 Bft) 91,49 %
17.03.2021 20:16 4,2 C 3,3 C 0,6 C 78 % 1026,6 hPa 0,0 l/m 0 min 0 min 0 W/m 6,4 km/h (2 Bft) 96,15 %
17.03.2021 20:18 4,2 C 3,3 C 0,6 C 78 % 1026,6 hPa 0,0 l/m 0 min 0 min 0 W/m 3,2 km/h (1 Bft) 95,74 %
17.03.2021 20:20 4,1 C 3,3 C 0,6 C 78 % 1026,6 hPa 0,0 l/m 0 min 0 min 0 W/m 3,2 km/h (1 Bft) 95,74 %
17.03.2021 20:22 4,1 C 2,8 C 0,6 C 78 % 1026,7 hPa 0,0 l/m 0 min 0 min 0 W/m 3,2 km/h (1 Bft) 95,74 %
17.03.2021 20:24 4,1 C 2,8 C 0,6 C 78 % 1026,6 hPa 0,0 l/m 0 min 0 min 0 W/m 3,2 km/h (1 Bft) 91,49 %
17.03.2021 20:26 4,1 C 2,8 C 0,6 C 78 % 1026,6 hPa 0,0 l/m 0 min 0 min 0 W/m 6,4 km/h (2 Bft) 95,65 %
17.03.2021 20:28 4,0 C 2,8 C 0,6 C 79 % 1026,7 hPa 0,0 l/m 0 min 0 min 0 W/m 3,2 km/h (1 Bft) 95,74 %
17.03.2021 20:30 4,0 C 2,8 C 0,6 C 79 % 1026,7 hPa 0,0 l/m 0 min 0 min 0 W/m 0,0 km/h (0 Bft) 93,62 %
17.03.2021 20:32 4,0 C 3,3 C 0,6 C 79 % 1026,7 hPa 0,0 l/m 0 min 0 min 0 W/m 3,2 km/h (1 Bft) 95,74 %
17.03.2021 20:34 4,0 C 2,8 C 0,6 C 80 % 1026,7 hPa 0,0 l/m 0 min 0 min 0 W/m 3,2 km/h (1 Bft) 97,87 %
17.03.2021 20:36 4,0 C 2,8 C 0,6 C 80 % 1026,7 hPa 0,0 l/m 0 min 0 min 0 W/m 3,2 km/h (1 Bft) 97,87 %
17.03.2021 20:38 4,0 C 2,8 C 0,6 C 81 % 1026,8 hPa 0,0 l/m 0 min 0 min 0 W/m 3,2 km/h (1 Bft) 97,83 %
17.03.2021 20:40 4,0 C 2,8 C 0,6 C 81 % 1026,9 hPa 0,0 l/m 0 min 0 min 0 W/m 3,2 km/h (1 Bft) 97,87 %
17.03.2021 20:42 4,0 C 2,8 C 0,6 C 81 % 1026,9 hPa 0,0 l/m 0 min 0 min 0 W/m 0,0 km/h (0 Bft) 97,56 %
17.03.2021 20:44 4,0 C 2,8 C 0,6 C 82 % 1026,9 hPa 0,0 l/m 0 min 0 min 0 W/m 6,4 km/h (2 Bft) 97,87 %
17.03.2021 20:46 4,0 C 2,8 C 0,6 C 82 % 1027,0 hPa 0,0 l/m 0 min 0 min 0 W/m 3,2 km/h (1 Bft) 98,11 %
17.03.2021 20:48 4,0 C 2,8 C 0,6 C 82 % 1027,0 hPa 0,0 l/m 0 min 0 min 0 W/m 3,2 km/h (1 Bft) 93,62 %
17.03.2021 20:50 3,9 C 2,8 C 0,6 C 83 % 1027,0 hPa 0,0 l/m 0 min 0 min 0 W/m 3,2 km/h (1 Bft) 97,56 %
17.03.2021 20:52 3,9 C 2,8 C 0,6 C 83 % 1027,0 hPa 0,0 l/m 0 min 0 min 0 W/m 6,4 km/h (2 Bft) 100,00 %
17.03.2021 20:54 3,9 C 2,8 C 0,6 C 83 % 1027,0 hPa 0,0 l/m 0 min 0 min 0 W/m 6,4 km/h (2 Bft) 97,87 %
17.03.2021 20:56 3,9 C 2,8 C 0,6 C 83 % 1027,0 hPa 0,0 l/m 0 min 0 min 0 W/m 6,4 km/h (2 Bft) 97,87 %
17.03.2021 20:58 3,9 C 2,8 C 0,6 C 84 % 1027,0 hPa 0,0 l/m 0 min 0 min 0 W/m 9,7 km/h (2 Bft) 98,11 %
17.03.2021 21:00 3,9 C 2,8 C 0,6 C 84 % 1027,1 hPa 0,0 l/m 0 min 0 min 0 W/m 6,4 km/h (2 Bft) 97,87 %
17.03.2021 21:02 3,9 C 2,8 C 0,6 C 84 % 1027,2 hPa 0,0 l/m 0 min 0 min 0 W/m 9,7 km/h (2 Bft) 97,83 %
17.03.2021 21:04 3,9 C 2,8 C 0,6 C 85 % 1027,2 hPa 0,0 l/m 0 min 0 min 0 W/m 6,4 km/h (2 Bft) 100,00 %
17.03.2021 21:06 3,9 C 2,8 C 0,6 C 85 % 1027,2 hPa 0,0 l/m 0 min 0 min 0 W/m 6,4 km/h (2 Bft) 100,00 %
17.03.2021 21:08 3,9 C 2,8 C 0,6 C 85 % 1027,2 hPa 0,0 l/m 0 min 0 min 0 W/m 3,2 km/h (1 Bft) 97,87 %
17.03.2021 21:10 3,9 C 2,8 C 0,6 C 85 % 1027,2 hPa 0,0 l/m 0 min 0 min 0 W/m 6,4 km/h (2 Bft) 100,00 %
17.03.2021 21:12 3,8 C 2,8 C 0,6 C 85 % 1027,3 hPa 0,0 l/m 0 min 0 min 0 W/m 3,2 km/h (1 Bft) 100,00 %
17.03.2021 21:14 3,8 C 2,8 C 0,6 C 86 % 1027,3 hPa 0,0 l/m 0 min 0 min 0 W/m 3,2 km/h (1 Bft) 97,87 %
17.03.2021 21:16 3,8 C 2,8 C 0,6 C 86 % 1027,3 hPa 0,0 l/m 0 min 0 min 0 W/m 6,4 km/h (2 Bft) 100,00 %
17.03.2021 21:18 3,8 C 2,8 C 0,0 C 86 % 1027,4 hPa 0,0 l/m 0 min 0 min 0 W/m 6,4 km/h (2 Bft) 95,74 %
17.03.2021 21:20 3,8 C 2,2 C 0,0 C 86 % 1027,4 hPa 0,0 l/m 0 min 0 min 0 W/m 6,4 km/h (2 Bft) 97,87 %
17.03.2021 21:22 3,7 C 2,2 C 0,0 C 86 % 1027,4 hPa 0,0 l/m 0 min 0 min 0 W/m 6,4 km/h (2 Bft) 95,74 %
17.03.2021 21:24 3,6 C 2,2 C 0,0 C 86 % 1027,3 hPa 0,0 l/m 0 min 0 min 0 W/m 6,4 km/h (2 Bft) 97,87 %
17.03.2021 21:26 3,6 C 2,2 C 0,0 C 86 % 1027,4 hPa 0,0 l/m 0 min 0 min 0 W/m 12,9 km/h (3 Bft) 97,83 %
17.03.2021 21:28 3,5 C 2,2 C 0,0 C 86 % 1027,4 hPa 0,0 l/m 0 min 0 min 0 W/m 9,7 km/h (2 Bft) 93,62 %
17.03.2021 21:30 3,5 C 2,2 C 0,0 C 86 % 1027,4 hPa 0,0 l/m 0 min 0 min 0 W/m 16,1 km/h (3 Bft) 100,00 %
17.03.2021 21:32 3,5 C 2,2 C 0,0 C 87 % 1027,4 hPa 0,0 l/m 0 min 0 min 0 W/m 9,7 km/h (2 Bft) 96,23 %
17.03.2021 21:34 3,5 C 2,2 C 0,0 C 87 % 1027,4 hPa 0,0 l/m 0 min 0 min 0 W/m 12,9 km/h (3 Bft) 95,74 %
17.03.2021 21:36 3,4 C 2,2 C 0,0 C 87 % 1027,4 hPa 0,0 l/m 0 min 0 min 0 W/m 16,1 km/h (3 Bft) 97,87 %
17.03.2021 21:38 3,4 C 2,2 C 0,0 C 87 % 1027,3 hPa 0,0 l/m 0 min 0 min 0 W/m 9,7 km/h (2 Bft) 51,16 %
17.03.2021 21:40 3,4 C 2,2 C 0,0 C 88 % 1027,4 hPa 0,0 l/m 0 min 0 min 0 W/m 12,9 km/h (3 Bft) 97,56 %
17.03.2021 21:42 3,4 C 2,2 C 0,0 C 88 % 1027,4 hPa 0,0 l/m 0 min 0 min 0 W/m 12,9 km/h (3 Bft) 97,87 %
17.03.2021 21:44 3,3 C 2,2 C 0,0 C 88 % 1027,5 hPa 0,0 l/m 0 min 0 min 0 W/m 16,1 km/h (3 Bft) 97,87 %
17.03.2021 21:46 3,3 C 2,2 C 0,0 C 88 % 1027,5 hPa 0,0 l/m 0 min 0 min 0 W/m 12,9 km/h (3 Bft) 95,74 %
17.03.2021 21:48 3,3 C 2,8 C 0,6 C 89 % 1027,5 hPa 0,0 l/m 0 min 0 min 0 W/m 12,9 km/h (3 Bft) 97,83 %
17.03.2021 21:50 3,3 C 2,2 C 0,6 C 89 % 1027,5 hPa 0,0 l/m 0 min 0 min 0 W/m 16,1 km/h (3 Bft) 95,74 %
17.03.2021 21:52 3,3 C 2,8 C 0,6 C 89 % 1027,5 hPa 0,0 l/m 0 min 0 min 0 W/m 9,7 km/h (2 Bft) 97,87 %
17.03.2021 21:54 3,3 C 2,2 C 0,0 C 89 % 1027,5 hPa 0,0 l/m 0 min 0 min 0 W/m 12,9 km/h (3 Bft) 100,00 %
17.03.2021 21:56 3,3 C 2,2 C 0,0 C 89 % 1027,5 hPa 0,0 l/m 0 min 0 min 0 W/m 12,9 km/h (3 Bft) 100,00 %
17.03.2021 21:58 3,3 C 2,2 C 0,0 C 89 % 1027,5 hPa 0,0 l/m 0 min 0 min 0 W/m 9,7 km/h (2 Bft) 100,00 %
17.03.2021 22:00 3,2 C 2,2 C 0,0 C 89 % 1027,6 hPa 0,0 l/m 0 min 0 min 0 W/m 9,7 km/h (2 Bft) 97,87 %
17.03.2021 22:02 3,2 C 2,2 C 0,0 C 89 % 1027,6 hPa 0,0 l/m 0 min 0 min 0 W/m 9,7 km/h (2 Bft) 100,00 %
17.03.2021 22:04 3,2 C 2,2 C 0,0 C 89 % 1027,6 hPa 0,0 l/m 0 min 0 min 0 W/m 9,7 km/h (2 Bft) 100,00 %
17.03.2021 22:06 3,1 C 2,2 C 0,0 C 89 % 1027,5 hPa 0,0 l/m 0 min 0 min 0 W/m 12,9 km/h (3 Bft) 100,00 %
17.03.2021 22:08 3,1 C 2,2 C 0,0 C 90 % 1027,5 hPa 0,0 l/m 0 min 0 min 0 W/m 6,4 km/h (2 Bft) 100,00 %
17.03.2021 22:10 3,1 C 2,2 C 0,0 C 90 % 1027,5 hPa 0,0 l/m 0 min 0 min 0 W/m 12,9 km/h (3 Bft) 100,00 %
17.03.2021 22:12 3,1 C 2,2 C 0,0 C 90 % 1027,6 hPa 0,0 l/m 0 min 0 min 0 W/m 12,9 km/h (3 Bft) 100,00 %
17.03.2021 22:14 3,1 C 2,2 C 0,0 C 90 % 1027,5 hPa 0,0 l/m 0 min 0 min 0 W/m 12,9 km/h (3 Bft) 100,00 %
17.03.2021 22:16 3,1 C 2,2 C 0,0 C 90 % 1027,5 hPa 0,0 l/m 0 min 0 min 0 W/m 16,1 km/h (3 Bft) 100,00 %
17.03.2021 22:18 3,0 C 2,2 C 0,0 C 90 % 1027,5 hPa 0,0 l/m 0 min 0 min 0 W/m 9,7 km/h (2 Bft) 97,87 %
17.03.2021 22:20 3,0 C 2,2 C 0,0 C 90 % 1027,5 hPa 0,0 l/m 0 min 0 min 0 W/m 9,7 km/h (2 Bft) 100,00 %
17.03.2021 22:22 3,0 C 2,2 C 0,0 C 90 % 1027,4 hPa 0,0 l/m 0 min 0 min 0 W/m 9,7 km/h (2 Bft) 100,00 %
17.03.2021 22:24 3,0 C 2,2 C 0,0 C 90 % 1027,4 hPa 0,0 l/m 0 min 0 min 0 W/m 3,2 km/h (1 Bft) 100,00 %
17.03.2021 22:26 3,0 C 2,2 C 0,0 C 90 % 1027,5 hPa 0,0 l/m 0 min 0 min 0 W/m 12,9 km/h (3 Bft) 100,00 %
17.03.2021 22:28 3,0 C 1,7 C 0,0 C 90 % 1027,5 hPa 0,0 l/m 0 min 0 min 0 W/m 6,4 km/h (2 Bft) 100,00 %
17.03.2021 22:30 3,0 C 2,2 C 0,0 C 90 % 1027,5 hPa 0,0 l/m 0 min 0 min 0 W/m 6,4 km/h (2 Bft) 100,00 %
17.03.2021 22:32 2,9 C 1,7 C 0,0 C 90 % 1027,5 hPa 0,0 l/m 0 min 0 min 0 W/m 12,9 km/h (3 Bft) 100,00 %
17.03.2021 22:34 2,9 C 1,7 C 0,0 C 90 % 1027,6 hPa 0,0 l/m 0 min 0 min 0 W/m 9,7 km/h (2 Bft) 100,00 %
17.03.2021 22:36 2,9 C 1,7 C 0,0 C 90 % 1027,6 hPa 0,0 l/m 0 min 0 min 0 W/m 9,7 km/h (2 Bft) 100,00 %
17.03.2021 22:38 2,9 C 1,7 C 0,0 C 90 % 1027,6 hPa 0,0 l/m 0 min 0 min 0 W/m 6,4 km/h (2 Bft) 100,00 %
17.03.2021 22:40 2,9 C 1,7 C 0,0 C 90 % 1027,7 hPa 0,0 l/m 0 min 0 min 0 W/m 3,2 km/h (1 Bft) 100,00 %
17.03.2021 22:42 2,9 C 1,7 C 0,0 C 90 % 1027,6 hPa 0,0 l/m 0 min 0 min 0 W/m 0,0 km/h (0 Bft) 100,00 %
17.03.2021 22:44 2,8 C 1,7 C 0,0 C 91 % 1027,7 hPa 0,0 l/m 0 min 0 min 0 W/m 0,0 km/h (0 Bft) 100,00 %
17.03.2021 22:46 2,8 C 1,7 C 0,0 C 90 % 1027,7 hPa 0,0 l/m 0 min 0 min 0 W/m 0,0 km/h (0 Bft) 100,00 %
17.03.2021 22:48 2,8 C 1,7 C 0,0 C 90 % 1027,7 hPa 0,0 l/m 0 min 0 min 0 W/m 3,2 km/h (1 Bft) 100,00 %
17.03.2021 22:50 2,8 C 1,7 C 0,0 C 91 % 1027,7 hPa 0,0 l/m 0 min 0 min 0 W/m 0,0 km/h (0 Bft) 100,00 %
17.03.2021 22:52 2,8 C 1,7 C 0,0 C 91 % 1027,7 hPa 0,0 l/m 0 min 0 min 0 W/m 0,0 km/h (0 Bft) 100,00 %
17.03.2021 22:54 2,7 C 1,7 C 0,0 C 91 % 1027,8 hPa 0,0 l/m 0 min 0 min 0 W/m 0,0 km/h (0 Bft) 97,87 %
17.03.2021 22:56 2,7 C 1,7 C -0,5 C 91 % 1027,7 hPa 0,0 l/m 0 min 0 min 0 W/m 0,0 km/h (0 Bft) 100,00 %
17.03.2021 22:58 2,7 C 1,7 C -0,5 C 91 % 1027,8 hPa 0,0 l/m 0 min 0 min 0 W/m 0,0 km/h (0 Bft) 100,00 %
17.03.2021 23:00 2,6 C 1,7 C -0,5 C 91 % 1027,7 hPa 0,0 l/m 0 min 0 min 0 W/m 0,0 km/h (0 Bft) 100,00 %
17.03.2021 23:02 2,6 C 1,7 C -0,5 C 91 % 1027,7 hPa 0,0 l/m 0 min 0 min 0 W/m 0,0 km/h (0 Bft) 100,00 %
17.03.2021 23:04 2,6 C 1,1 C -0,5 C 91 % 1027,7 hPa 0,0 l/m 0 min 0 min 0 W/m 0,0 km/h (0 Bft) 97,92 %
17.03.2021 23:06 2,6 C 1,1 C -0,5 C 91 % 1027,7 hPa 0,0 l/m 0 min 0 min 0 W/m 0,0 km/h (0 Bft) 97,87 %
17.03.2021 23:08 2,5 C 1,1 C -0,5 C 91 % 1027,7 hPa 0,0 l/m 0 min 0 min 0 W/m 0,0 km/h (0 Bft) 95,74 %
17.03.2021 23:10 2,5 C 1,1 C -0,5 C 91 % 1027,7 hPa 0,0 l/m 0 min 0 min 0 W/m 0,0 km/h (0 Bft) 97,87 %
17.03.2021 23:12 2,5 C 1,1 C -0,5 C 91 % 1027,7 hPa 0,0 l/m 0 min 0 min 0 W/m 3,2 km/h (1 Bft) 93,62 %
17.03.2021 23:14 2,5 C 1,1 C -0,5 C 91 % 1027,8 hPa 0,0 l/m 0 min 0 min 0 W/m 0,0 km/h (0 Bft) 95,65 %
17.03.2021 23:16 2,4 C 1,1 C -0,5 C 91 % 1027,8 hPa 0,0 l/m 0 min 0 min 0 W/m 0,0 km/h (0 Bft) 95,74 %
17.03.2021 23:18 2,4 C 1,1 C -0,5 C 91 % 1027,8 hPa 0,0 l/m 0 min 0 min 0 W/m 0,0 km/h (0 Bft) 97,87 %
17.03.2021 23:20 2,4 C 1,1 C -0,5 C 91 % 1027,9 hPa 0,0 l/m 0 min 0 min 0 W/m 0,0 km/h (0 Bft) 97,87 %
17.03.2021 23:22 2,4 C 1,1 C -0,5 C 91 % 1027,9 hPa 0,0 l/m 0 min 0 min 0 W/m 0,0 km/h (0 Bft) 95,74 %
17.03.2021 23:24 2,4 C 1,1 C -0,5 C 91 % 1027,9 hPa 0,0 l/m 0 min 0 min 0 W/m 0,0 km/h (0 Bft) 93,62 %
17.03.2021 23:26 2,4 C 1,1 C -0,5 C 91 % 1027,9 hPa 0,0 l/m 0 min 0 min 0 W/m 0,0 km/h (0 Bft) 95,65 %
17.03.2021 23:28 2,3 C 1,1 C -0,5 C 91 % 1028,0 hPa 0,0 l/m 0 min 0 min 0 W/m 0,0 km/h (0 Bft) 95,74 %
17.03.2021 23:30 2,3 C 1,1 C -0,5 C 91 % 1028,0 hPa 0,0 l/m 0 min 0 min 0 W/m 0,0 km/h (0 Bft) 93,62 %
17.03.2021 23:32 2,3 C 1,1 C -0,5 C 91 % 1027,9 hPa 0,0 l/m 0 min 0 min 0 W/m 0,0 km/h (0 Bft) 95,74 %
17.03.2021 23:34 2,3 C 1,1 C -0,5 C 91 % 1027,9 hPa 0,0 l/m 0 min 0 min 0 W/m 0,0 km/h (0 Bft) 95,74 %
17.03.2021 23:36 2,3 C 1,1 C -0,5 C 92 % 1027,8 hPa 0,0 l/m 0 min 0 min 0 W/m 0,0 km/h (0 Bft) 95,65 %
17.03.2021 23:38 2,2 C 1,1 C -0,5 C 92 % 1027,8 hPa 0,0 l/m 0 min 0 min 0 W/m 0,0 km/h (0 Bft) 97,87 %
17.03.2021 23:40 2,2 C 1,1 C -0,5 C 92 % 1027,8 hPa 0,0 l/m 0 min 0 min 0 W/m 0,0 km/h (0 Bft) 95,74 %
17.03.2021 23:42 2,1 C 1,1 C -0,5 C 92 % 1027,7 hPa 0,0 l/m 0 min 0 min 0 W/m 0,0 km/h (0 Bft) 91,49 %
17.03.2021 23:44 2,1 C 1,1 C -0,5 C 92 % 1027,7 hPa 0,0 l/m 0 min 0 min 0 W/m 0,0 km/h (0 Bft) 95,74 %
17.03.2021 23:46 2,1 C 1,1 C -0,5 C 92 % 1027,7 hPa 0,0 l/m 0 min 0 min 0 W/m 0,0 km/h (0 Bft) 93,62 %
17.03.2021 23:48 2,1 C 1,1 C -0,5 C 92 % 1027,7 hPa 0,0 l/m 0 min 0 min 0 W/m 0,0 km/h (0 Bft) 95,65 %
17.03.2021 23:50 2,0 C 1,1 C -0,5 C 92 % 1027,7 hPa 0,0 l/m 0 min 0 min 0 W/m 0,0 km/h (0 Bft) 95,74 %
17.03.2021 23:52 2,0 C 1,1 C -0,5 C 92 % 1027,7 hPa 0,0 l/m 0 min 0 min 0 W/m 0,0 km/h (0 Bft) 95,74 %
17.03.2021 23:54 2,0 C 1,1 C -0,5 C 92 % 1027,6 hPa 0,0 l/m 0 min 0 min 0 W/m 0,0 km/h (0 Bft) 95,74 %
17.03.2021 23:56 2,0 C 1,1 C -0,5 C 92 % 1027,6 hPa 0,0 l/m 0 min 0 min 0 W/m 3,2 km/h (1 Bft) 93,62 %
17.03.2021 23:58 2,0 C 1,1 C -0,5 C 92 % 1027,5 hPa 0,0 l/m 0 min 0 min 0 W/m 9,7 km/h (2 Bft) 95,74 %
_ Min-Zeit 23:50 23:04 22:56 14:12 00:00 - - - - 09:22 04:22
Minimum _ 2,0 C 1,1 C -0,5 C 64 % 1023,8 hPa - - - - 0,0 km/h (0 Bft) 50,00 %
_ Max-Zeit 15:46 13:46 12:04 06:34 23:28 00:00 12:08 00:08 13:08 12:18 00:00
Maximum _ 8,6 C 17,8 C 11,1 C 98 % 1028,0 hPa 0,2 l/m 4 min 4 min 855 W/m 41,8 km/h
O-NO (6 Bft)
100,00 %
Durchschnitt _ 5,1 C 5,4 C 3,2 C 86 % 1025,6 hPa #0,8 l/m #3:10 h #3:02 h 194 W/m 12,7 km/h (3 Bft) 96,96 %
© 2021 W. Hausmann